GFSNW_500_spd_000.txt.gz
Wind_Speed
17 9 2 17 22 19 29 27 22 18 12 16 20 21 20 24 23 21 16 17 19 19 15 11 10 13 19 25 31 31 28 26 25 25 26 27 28 30 31 32 32 31 34 24
30 14 7 9 22 21 26 22 20 19 13 18 21 23 26 22 22 18 15 19 17 17 16 14 13 13 14 14 19 24 25 25 26 28 29 30 31 34 35 35 36 32 41 31
28 22 10 8 16 28 26 22 21 21 17 14 22 24 20 19 19 18 20 18 16 15 14 12 13 11 10 9 10 12 16 19 21 23 27 29 31 34 35 37 39 41 40 41
23 27 18 12 13 23 31 25 21 22 21 16 22 24 19 18 16 13 13 11 10 8 9 10 11 12 13 15 16 18 20 21 24 26 30 34 36 37 34 39 37 46 41 46
16 20 24 12 11 20 31 31 27 23 23 28 28 24 18 17 12 11 9 8 8 10 12 13 13 14 15 14 15 16 19 22 25 23 29 35 37 33 36 39 41 46 47 49
11 13 16 21 6 12 26 33 33 31 30 30 24 24 18 12 6 4 5 7 8 10 12 13 15 17 18 18 20 25 26 28 33 33 33 37 42 35 37 40 43 43 44 46
5 8 10 13 17 8 17 27 30 33 31 28 31 27 25 21 17 18 19 19 20 21 21 22 23 25 23 23 25 26 26 28 30 31 29 28 32 34 37 39 40 44 48 49
0 2 5 6 9 11 9 18 25 26 29 28 27 25 24 24 26 24 25 25 25 23 22 21 19 19 17 20 22 24 26 29 33 35 36 35 37 44 45 45 44 48 50 55
5 5 5 5 4 4 6 10 23 17 19 25 26 26 27 27 28 26 27 22 17 14 15 15 13 16 17 20 22 25 28 31 36 39 42 43 43 44 49 54 53 56 56 58
11 10 10 10 9 7 4 4 5 13 23 25 28 32 29 28 25 19 17 16 15 15 16 17 19 19 22 24 25 28 33 39 42 45 49 50 48 52 57 59 60 63 65 65
16 15 15 14 14 12 11 9 9 11 11 13 16 18 19 19 19 17 16 18 18 18 19 20 23 26 26 28 31 36 42 48 50 52 54 58 58 61 65 68 71 73 74 73
22 19 19 19 18 17 16 16 15 14 14 13 16 15 17 17 16 18 20 18 20 22 26 28 30 33 35 36 40 43 47 49 55 57 59 60 62 67 69 71 73 72 73 73
26 23 23 23 22 20 21 20 19 19 18 19 20 20 20 20 19 21 20 25 28 29 32 36 38 40 40 42 45 50 52 54 58 60 59 61 70 73 77 78 76 75 75 75
29 26 26 25 24 24 24 24 24 23 23 21 22 23 22 22 19 22 24 28 32 36 40 42 43 44 48 49 50 54 56 62 60 63 65 69 71 72 73 76 78 78 76 73
31 30 29 28 27 26 27 27 28 27 26 23 20 21 22 23 24 27 32 35 37 40 44 47 51 53 55 58 60 61 64 63 69 70 73 78 78 79 76 73 73 74 73 73
34 34 32 31 30 30 29 29 31 30 29 27 27 25 24 26 30 34 38 41 44 48 52 54 54 55 59 63 63 63 65 67 71 74 77 80 82 82 80 75 73 71 70 69
37 38 37 36 34 33 33 33 33 33 35 36 35 29 24 26 30 35 38 42 47 51 53 54 56 59 64 65 65 66 71 74 76 78 82 85 84 82 77 69 65 65 64 64
42 42 40 40 39 38 38 38 36 37 38 41 44 40 37 38 38 40 44 46 47 47 49 51 54 58 62 63 63 69 71 74 77 81 83 82 75 67 62 60 59 58 57 58
45 46 47 46 44 45 47 45 43 42 45 45 42 37 42 46 48 51 51 52 53 55 54 53 58 59 63 67 70 73 75 76 79 82 81 72 62 56 55 53 50 49 50 51
49 50 51 51 53 54 50 45 47 49 49 46 44 47 49 52 53 54 56 59 59 61 62 64 65 65 68 72 74 74 77 76 73 68 63 57 55 50 45 42 42 43 45 49
51 52 52 51 50 49 50 52 53 52 51 51 52 52 53 54 56 58 59 60 63 65 64 65 64 64 68 73 73 72 69 63 59 57 55 53 50 47 44 42 43 46 50 52
54 52 52 51 53 54 55 55 54 52 53 53 51 53 55 56 56 58 61 64 65 66 65 66 64 65 70 72 67 59 53 53 53 52 50 48 44 42 42 45 48 50 52 56
57 56 54 53 53 55 55 53 53 54 54 53 52 52 53 55 59 62 64 66 68 68 68 69 67 68 67 60 55 51 50 47 44 42 41 40 41 44 47 49 50 53 57 60
61 59 57 56 57 56 53 50 49 50 52 53 53 53 54 57 60 63 66 70 69 69 72 66 59 57 53 51 48 47 48 45 41 40 41 43 46 48 51 52 55 58 61 65
58 57 55 55 52 49 48 48 50 51 51 52 53 56 58 60 64 65 67 67 69 70 62 58 56 53 50 47 45 46 45 43 42 43 43 46 49 52 53 56 59 62 65 68
55 51 50 48 45 45 49 50 51 53 55 56 58 60 62 64 67 69 70 67 64 54 57 57 54 53 50 49 46 44 44 43 42 45 47 50 52 54 55 59 64 67 70 73
52 51 49 48 48 49 51 53 53 56 58 59 61 63 64 67 70 71 69 64 57 56 53 52 52 51 48 45 44 42 43 45 47 48 50 52 53 56 61 64 68 71 74 75

GFSNW_500_spd_006.txt.gz
Wind_Speed
12 12 18 20 19 12 7 8 8 8 13 14 16 13 11 13 10 14 18 20 22 20 23 21 26 32 29 24 22 19 19 19 18 18 19 19 18 17 18 20 19 23 24 21
14 5 20 24 22 19 13 9 3 7 15 21 16 15 11 9 16 16 16 18 16 15 14 16 22 21 25 25 22 21 18 18 19 20 20 19 18 18 19 21 23 25 25 19
13 2 16 21 25 24 19 13 7 10 17 11 15 12 9 11 10 17 18 18 14 10 10 11 12 18 21 19 19 18 19 21 21 21 18 20 20 21 21 21 18 23 20 22
9 7 5 23 26 25 22 18 10 10 15 15 12 11 13 13 10 10 13 13 6 5 7 8 9 11 13 14 14 14 16 18 21 22 23 23 21 16 17 20 20 29 23 31
7 7 4 19 24 27 22 21 18 14 15 16 16 13 14 12 11 13 10 9 10 9 9 9 9 9 9 9 9 10 10 12 15 15 17 18 19 18 24 26 27 31 33 28
8 6 9 13 25 27 28 22 21 19 18 21 16 16 17 16 15 12 11 11 7 5 4 4 5 5 8 10 12 12 14 16 18 18 22 25 24 24 26 28 28 29 28 33
11 1 7 13 24 29 29 26 21 17 18 21 21 20 19 17 13 10 7 5 5 2 4 6 8 10 13 15 16 18 20 22 23 23 27 28 25 20 21 23 24 29 33 37
12 7 6 10 21 30 30 26 23 21 18 20 21 20 21 18 14 9 5 8 7 8 10 12 15 16 16 18 19 20 21 22 21 20 24 25 20 23 27 30 32 36 40 44
14 12 10 10 16 28 32 31 28 25 21 21 26 26 27 22 17 16 14 12 12 11 14 14 11 10 10 11 10 12 14 17 19 21 23 26 26 29 33 37 42 46 50 52
18 15 14 14 15 21 31 34 32 31 31 30 26 31 29 25 26 26 20 19 17 18 18 20 18 13 12 13 15 16 17 19 21 25 29 31 33 37 40 43 49 53 55 57
21 20 17 18 19 20 25 31 37 37 34 35 34 36 38 35 31 29 26 24 24 25 21 19 20 15 15 16 19 21 21 24 26 30 33 36 38 42 47 52 55 58 60 61
27 23 22 21 22 24 23 25 27 29 33 35 35 33 32 33 32 31 29 27 26 24 22 21 21 21 21 24 23 25 23 30 34 37 37 41 46 51 56 58 58 60 61 63
30 29 26 25 26 27 29 29 28 27 26 26 28 30 32 32 30 26 28 26 26 25 26 27 26 28 29 29 30 29 33 37 40 45 42 47 54 56 60 62 62 63 66 70
32 32 32 30 28 30 32 35 34 32 31 31 30 30 29 29 29 30 30 30 30 30 33 31 30 33 36 37 37 35 45 46 49 51 53 58 59 60 62 63 65 69 71 73
33 34 33 32 31 31 34 36 39 38 36 34 35 37 35 35 34 34 34 34 35 37 38 37 36 37 43 44 42 38 48 50 54 56 56 59 60 63 65 67 71 73 75 78
34 34 33 33 34 33 37 40 40 42 42 39 37 38 37 38 37 37 38 40 40 42 42 41 39 41 47 50 44 47 53 54 56 57 58 61 63 65 67 69 71 74 76 77
36 36 35 35 35 35 38 40 42 44 45 44 41 39 38 39 40 41 41 42 43 44 45 43 44 46 52 51 47 52 53 57 58 60 61 63 65 67 69 73 74 75 79 81
38 38 36 34 37 39 38 41 45 46 45 44 45 40 38 40 42 43 45 45 46 49 52 51 52 56 54 48 51 52 55 56 57 59 61 64 66 69 71 71 74 77 80 79
39 41 42 38 35 38 40 43 46 47 49 46 42 40 40 44 46 47 49 51 52 58 58 57 59 57 52 52 54 55 57 59 60 61 63 65 68 69 71 74 78 76 73 67
39 40 40 37 34 37 42 44 48 51 52 46 41 41 44 46 48 51 54 58 58 63 64 65 64 60 53 60 57 58 58 60 61 62 64 66 68 69 72 73 70 68 64 59
38 38 40 38 37 38 42 46 49 51 52 50 46 47 48 49 53 57 61 63 64 65 67 67 67 60 58 58 59 58 59 60 61 63 64 65 69 71 72 68 66 62 58 57
38 40 42 42 40 39 40 40 44 48 50 53 53 52 53 55 59 63 63 63 64 65 63 60 57 53 55 58 57 57 58 60 61 63 66 70 72 72 69 67 64 58 56 57
45 46 45 44 44 41 42 42 38 38 47 52 56 57 59 60 60 60 61 59 57 56 58 56 49 51 56 56 57 58 59 60 61 63 67 70 70 68 64 60 55 54 55 54
49 50 50 48 46 46 45 43 41 42 42 44 47 50 53 54 54 55 56 57 56 56 55 47 48 55 55 57 57 57 59 60 62 66 69 69 65 58 52 50 51 53 53 54
55 53 54 51 49 48 48 47 45 46 46 46 47 49 49 49 52 52 53 54 54 52 43 48 55 56 57 57 58 59 60 63 66 67 66 61 54 51 51 52 53 52 51 52
58 58 55 54 54 53 50 49 49 49 48 47 47 48 50 52 53 53 51 51 46 41 48 52 56 57 57 57 60 63 65 67 67 64 57 51 49 51 52 51 50 49 50 53
58 55 57 57 57 57 57 53 51 52 47 46 48 50 52 55 55 52 49 43 43 48 51 53 54 56 56 59 62 66 68 66 60 52 48 49 51 52 50 47 48 48 52 56

GFSNW_500_spd_009.txt.gz
Wind_Speed
15 12 17 16 11 7 4 5 2 1 6 11 10 15 17 15 21 21 23 25 21 22 29 29 34 36 31 34 33 30 29 27 26 22 24 21 19 17 16 17 14 14 14 18
12 16 15 22 18 12 7 3 3 1 6 7 10 11 15 16 17 20 23 24 22 19 27 30 32 36 30 28 29 24 26 24 23 23 19 16 15 15 15 15 15 16 17 17
10 17 11 24 24 18 12 5 1 4 11 8 12 11 12 13 17 21 20 17 19 20 19 25 35 33 31 32 27 25 23 21 18 15 12 14 15 15 15 17 17 18 12 17
10 16 11 22 28 22 15 9 4 7 15 13 8 5 8 11 16 20 19 16 17 17 16 18 18 21 31 31 28 27 22 18 16 15 16 16 15 15 17 15 17 19 16 18
11 11 14 18 29 29 21 14 9 9 13 14 13 13 10 12 14 16 14 14 15 15 14 13 13 15 19 19 19 18 18 18 17 18 17 15 14 14 16 18 19 22 22 15
12 8 15 9 27 27 24 18 14 10 15 18 17 16 17 16 14 12 19 15 14 14 12 9 9 8 7 6 6 6 8 9 11 14 14 14 11 16 18 19 19 18 19 21
13 7 13 9 25 26 28 24 17 14 13 20 20 21 19 17 13 11 11 13 9 9 7 6 4 4 5 7 8 11 12 13 16 17 18 15 15 17 17 14 17 21 24 27
14 9 10 11 19 27 29 26 20 16 14 18 20 21 20 17 15 12 7 5 7 2 2 2 2 7 9 11 13 15 16 17 19 19 19 14 16 16 17 20 23 28 30 33
16 12 9 12 10 27 31 28 25 21 18 16 18 20 21 20 15 10 7 4 5 6 4 5 5 6 7 9 11 12 12 12 15 17 15 15 18 20 24 27 28 31 33 38
19 16 12 14 13 16 29 33 31 29 23 21 20 22 23 24 21 16 12 12 10 11 11 12 12 11 13 15 14 14 14 15 17 19 19 20 22 25 27 30 33 37 42 46
23 21 17 14 17 15 22 34 34 34 32 29 26 22 23 27 26 24 22 21 21 20 20 19 15 14 18 20 17 17 18 19 22 22 24 24 27 31 33 36 41 47 51 55
26 25 22 19 17 20 20 25 37 35 35 34 33 31 30 30 33 32 31 31 30 28 26 22 19 19 20 19 19 23 23 25 26 25 26 32 34 37 42 47 50 53 56 60
29 29 28 25 21 22 24 25 25 35 38 39 37 37 37 38 38 38 38 36 34 33 30 24 22 25 24 22 24 26 28 33 29 30 32 36 39 44 48 51 53 57 59 61
32 31 30 31 29 25 25 27 30 30 30 32 33 38 39 39 40 39 37 35 33 31 29 27 28 30 28 26 27 30 38 36 36 35 39 41 42 49 51 54 57 60 61 63
33 33 33 32 32 33 30 28 30 30 33 34 34 32 32 32 32 32 32 32 32 31 30 30 32 34 34 29 31 35 41 38 41 39 43 47 50 52 56 58 58 60 62 64
34 34 34 35 34 34 35 33 31 34 35 35 35 35 35 35 34 34 33 34 35 34 33 33 34 36 40 33 33 44 42 44 45 45 49 53 56 56 56 56 58 61 63 66
34 33 34 34 35 36 35 34 34 35 37 38 38 39 39 38 38 38 37 36 35 36 36 36 38 42 43 37 39 44 47 49 50 54 57 56 57 56 57 59 62 64 67 70
36 34 33 33 33 33 34 33 35 37 38 39 41 40 40 40 41 41 41 40 40 41 39 39 41 43 43 40 49 48 52 54 57 58 58 61 61 59 60 63 66 68 71 71
38 36 34 32 31 33 36 34 34 37 40 40 39 40 41 42 42 44 46 47 47 48 46 46 48 45 43 50 50 55 58 59 60 62 63 63 60 61 64 65 67 69 69 70
44 43 40 37 36 35 37 41 39 38 39 40 40 41 41 43 44 45 45 46 48 51 50 53 55 51 51 54 56 58 62 64 65 64 60 58 60 62 65 66 67 67 69 72
47 46 44 40 36 36 37 38 38 39 38 38 38 40 42 44 46 48 50 50 51 55 55 56 57 54 55 55 60 62 62 60 57 56 56 57 59 61 63 64 66 68 70 73
46 44 43 42 39 39 38 39 39 37 35 35 38 40 43 47 49 53 55 55 57 58 58 59 57 58 57 56 55 55 55 54 54 56 58 58 60 61 62 65 68 70 72 68
49 47 46 46 43 40 38 39 37 35 35 35 34 36 40 43 46 49 53 54 54 54 54 51 51 50 51 53 53 53 54 55 54 55 56 57 58 60 63 66 68 68 64 58
50 51 51 48 45 42 40 40 40 38 39 38 37 37 37 36 36 37 38 40 41 43 42 43 44 48 53 54 54 54 53 52 53 53 52 54 57 62 66 69 67 60 53 51
54 54 54 49 47 46 45 45 43 42 42 41 41 40 36 37 38 38 40 42 44 45 42 45 48 50 51 52 53 52 51 52 53 53 54 58 63 66 68 64 56 51 49 50
59 58 54 50 50 52 52 48 46 45 44 44 43 43 43 43 43 42 43 45 42 40 47 50 51 51 52 52 51 51 52 53 55 56 58 63 67 68 64 55 50 49 49 49
62 57 55 55 55 55 56 54 52 49 47 47 46 45 45 47 47 45 46 42 40 44 47 50 51 51 52 52 52 52 54 55 56 59 64 67 67 62 53 49 48 48 48 48

GFSNW_500_spd_012.txt.gz
Wind_Speed
14 17 19 17 18 8 4 5 2 4 4 8 13 13 11 15 15 14 18 25 25 32 46 39 42 44 42 44 38 34 33 33 33 29 29 29 27 25 24 22 18 15 12 12
11 17 18 15 21 13 8 2 5 5 3 4 12 16 16 17 17 19 21 28 32 28 34 36 35 33 35 36 31 34 33 31 31 32 30 27 24 21 19 18 16 14 13 16
10 15 17 16 22 19 13 4 2 7 9 9 12 14 14 17 25 19 18 21 28 25 34 34 35 36 38 31 31 32 32 31 27 22 18 19 20 19 18 17 15 15 14 19
7 14 16 14 17 22 16 9 2 7 12 9 10 14 13 17 25 25 22 21 21 24 23 32 36 37 29 30 30 29 28 25 24 23 22 22 20 20 19 17 20 19 17 17
8 11 16 13 12 22 19 11 5 9 14 10 8 13 13 15 20 21 20 20 18 13 17 29 35 34 30 29 29 25 23 19 21 21 21 20 20 21 22 21 21 20 22 17
10 8 15 12 10 20 23 17 9 5 10 13 15 16 16 16 15 16 21 21 20 19 17 17 26 37 36 37 36 36 33 27 26 23 22 20 21 19 19 21 23 24 20 22
12 10 13 11 8 18 22 21 13 6 10 16 18 17 16 17 17 26 27 24 24 19 18 17 15 13 14 20 21 19 18 19 17 18 16 20 20 23 24 24 24 20 18 21
16 11 12 11 5 18 21 21 17 13 11 18 20 19 22 18 23 21 17 14 14 11 11 10 9 9 9 10 11 13 15 16 17 19 19 19 20 20 19 19 21 22 21 23
20 14 13 12 6 15 23 24 22 17 15 17 21 22 22 22 20 16 14 13 9 9 11 8 5 5 6 10 11 13 16 18 18 18 17 16 17 17 19 21 22 22 24 27
23 18 16 14 11 11 25 26 26 24 21 19 22 22 23 23 22 18 13 12 13 11 9 7 7 8 8 11 11 13 15 17 16 15 15 18 18 20 21 21 24 27 30 34
25 22 19 18 16 14 17 30 29 28 28 25 24 24 26 26 25 22 19 12 11 13 14 13 12 11 12 14 17 19 19 20 19 19 19 20 20 23 25 27 29 32 36 40
28 26 24 21 20 18 17 21 32 33 32 32 29 28 27 28 28 28 26 23 21 20 19 20 20 18 16 17 19 22 23 22 22 23 24 24 26 28 30 33 36 40 44 47
30 29 27 26 24 23 21 19 21 32 37 36 37 33 30 30 29 30 31 31 30 30 30 28 27 24 22 22 23 25 25 26 24 26 29 32 33 35 36 38 41 44 47 50
33 32 30 29 29 26 26 24 23 23 28 36 37 35 35 35 34 35 34 36 37 37 36 36 35 31 29 28 26 27 30 27 27 29 33 36 39 40 40 43 46 49 50 52
34 33 33 32 30 30 29 27 28 28 28 27 28 33 33 32 33 35 37 37 38 38 38 36 32 30 30 28 29 31 34 31 30 31 35 36 40 44 47 49 51 53 55 57
36 34 34 34 32 30 30 30 30 29 31 33 32 32 30 29 29 28 28 29 30 32 33 33 32 29 28 28 28 37 34 32 35 38 41 43 43 47 49 52 55 58 60 62
37 35 34 34 34 32 30 31 31 32 32 32 33 35 34 34 34 32 31 30 31 33 34 33 31 30 29 29 30 42 36 38 40 43 46 47 49 51 55 59 61 62 63 63
39 36 34 34 34 33 32 32 32 33 33 34 33 30 31 34 34 35 34 34 35 36 35 33 34 32 31 30 39 38 40 42 45 46 49 53 57 61 62 63 63 61 58 59
42 40 37 35 34 35 35 35 34 34 35 34 32 31 31 33 34 37 36 37 37 36 36 36 37 33 30 39 38 41 43 46 50 55 59 60 62 63 62 58 55 55 57 60
39 40 41 37 37 37 36 36 37 37 37 33 31 34 34 35 34 36 38 39 39 38 37 38 37 31 38 39 42 47 51 55 57 58 59 59 58 54 52 52 54 56 58 60
42 36 37 43 41 39 38 37 36 35 34 34 35 35 35 36 36 37 38 39 40 41 39 42 40 39 45 49 51 54 57 56 56 56 53 51 51 51 52 54 54 56 58 59
43 40 40 41 43 44 45 43 40 37 38 38 34 36 37 37 37 38 37 39 42 44 43 45 46 48 49 51 51 53 52 49 48 47 48 50 51 52 52 53 54 55 57 60
46 45 43 41 42 43 44 43 42 36 31 31 32 33 34 35 38 39 40 42 44 43 44 45 46 46 47 46 45 45 45 46 47 49 50 50 50 50 51 52 55 58 61 65
50 49 50 49 47 45 44 42 40 37 34 34 32 31 32 32 33 35 35 37 37 36 36 38 38 41 44 46 46 47 46 47 48 50 51 51 51 52 52 55 58 62 65 68
55 54 54 51 46 44 44 41 41 40 39 36 36 35 33 33 33 32 33 33 35 36 37 38 41 43 44 46 47 47 48 49 50 52 52 53 54 56 57 59 62 65 68 69
59 58 55 52 49 48 47 45 44 42 43 42 39 38 38 37 35 33 33 33 35 37 40 42 43 45 46 46 47 47 47 49 51 52 54 54 55 57 60 63 65 67 67 64
64 59 56 55 54 51 50 48 48 47 47 47 44 43 42 40 38 36 34 36 38 40 42 44 46 47 47 48 48 49 49 51 53 54 55 56 59 60 62 66 68 68 63 57

GFSNW_500_spd_015.txt.gz
Wind_Speed
14 18 20 14 16 11 8 8 10 6 7 11 8 5 9 8 11 20 19 33 42 28 35 39 37 37 34 35 33 35 38 38 34 34 34 35 36 34 32 31 26 24 19 16
13 16 19 15 14 9 9 9 8 4 4 7 6 4 5 12 14 13 24 26 34 35 28 34 32 32 29 32 35 31 34 36 36 36 37 36 34 30 29 26 23 19 17 15
14 14 19 15 12 8 11 9 7 4 1 3 4 8 7 11 14 17 20 22 24 31 32 33 33 33 32 40 34 29 35 36 34 30 25 24 24 23 24 23 20 16 17 20
15 14 19 15 10 7 11 13 7 8 8 4 4 8 11 14 15 17 24 24 24 29 28 29 33 26 29 40 34 33 35 32 29 27 25 26 24 24 23 20 20 24 20 25
16 16 20 15 9 9 11 13 9 10 11 7 5 8 14 11 15 15 21 20 18 22 24 23 30 32 29 31 40 28 27 27 25 25 27 26 25 24 24 24 24 23 25 27
19 17 21 16 8 11 14 16 12 9 14 10 10 11 12 15 16 18 20 16 15 20 24 30 34 35 35 29 23 22 24 27 27 26 25 27 28 25 26 27 27 27 28 28
22 18 21 19 8 10 18 19 15 9 12 12 13 12 12 11 19 21 20 18 14 9 17 25 18 34 32 32 34 28 26 25 24 24 26 29 25 28 31 29 27 27 24 23
25 19 21 20 10 9 21 20 18 13 14 15 16 15 12 16 19 23 23 23 21 22 20 17 26 30 29 27 28 29 29 27 28 27 29 28 28 21 22 24 24 25 25 25
27 21 21 21 12 11 21 23 21 17 16 20 20 20 22 26 25 26 22 18 16 17 17 17 17 16 14 17 16 11 16 19 22 17 17 18 22 22 25 27 28 24 24 26
28 23 22 22 15 14 20 24 26 22 18 22 22 23 27 26 22 21 19 17 14 15 15 13 14 15 12 13 14 16 16 18 20 22 23 23 22 23 23 24 21 23 24 27
30 25 23 24 19 17 17 27 28 28 24 21 24 26 27 28 22 19 18 16 14 15 14 9 7 7 8 9 11 13 14 14 16 17 17 18 18 20 23 22 23 25 28 31
31 27 25 26 24 19 20 23 30 31 30 28 26 27 29 28 26 24 21 19 15 14 15 14 13 13 12 13 14 15 18 18 20 22 20 20 23 23 24 26 28 31 34 37
33 29 28 27 28 23 22 22 25 33 34 33 32 29 28 30 31 31 28 26 25 23 21 20 19 19 18 18 19 20 21 22 22 24 23 26 27 28 30 32 34 37 40 43
35 33 31 29 29 28 23 25 24 25 34 38 35 33 32 30 30 31 32 32 33 31 30 28 27 26 26 25 26 25 26 27 24 26 27 31 31 33 36 37 39 42 45 48
37 35 33 31 30 31 30 25 25 26 27 30 37 38 36 35 35 33 32 33 33 33 33 34 35 35 35 32 28 25 30 28 29 28 31 33 34 37 39 41 44 47 48 50
40 37 35 32 32 32 33 32 27 25 26 28 28 32 37 38 37 36 36 37 37 37 37 38 38 36 36 32 25 29 29 28 28 29 34 38 40 41 44 45 47 49 52 56
40 39 36 34 34 33 32 33 33 31 29 27 28 30 30 31 31 31 31 31 30 31 30 29 27 27 26 24 23 35 31 30 31 34 37 41 42 44 47 49 52 56 59 58
42 41 38 36 35 34 33 33 34 35 35 34 32 29 28 29 32 33 33 34 35 35 33 30 30 29 29 28 33 37 33 33 35 38 40 42 45 48 50 54 57 57 56 54
44 42 40 38 37 35 34 35 36 36 36 36 34 33 31 32 31 32 34 36 37 37 36 33 33 31 31 33 34 34 34 35 38 41 44 46 49 53 56 57 56 54 52 53
45 43 41 39 38 38 37 36 36 37 37 35 33 32 33 34 34 34 33 34 36 37 35 35 34 30 33 38 37 37 38 41 45 47 50 53 54 55 54 53 51 51 53 55
47 44 41 40 43 43 42 40 40 38 35 33 32 33 33 32 32 33 34 34 36 37 34 35 33 30 34 37 35 38 40 44 48 51 52 53 52 49 48 49 51 52 53 54
46 44 43 43 38 33 39 44 43 39 35 30 29 30 31 32 34 34 32 33 34 36 33 34 32 31 34 36 38 42 45 48 50 49 45 43 45 46 47 48 50 51 53 54
49 48 48 44 44 40 34 33 35 38 33 32 32 30 31 32 34 32 31 34 35 33 34 33 32 33 37 40 43 43 42 38 38 40 41 43 44 46 47 49 50 51 53 55
51 50 48 44 46 47 41 33 30 30 34 36 35 33 32 31 31 32 34 34 33 35 34 33 33 34 33 33 33 33 34 37 39 41 42 43 44 45 47 49 51 52 54 56
57 52 49 44 42 43 42 37 32 30 29 28 28 30 32 33 33 32 31 32 34 35 33 32 32 32 33 33 33 34 37 38 40 41 43 45 46 48 49 51 53 55 57 60
65 59 53 48 44 43 42 39 37 34 33 32 32 34 34 33 34 33 33 34 35 35 34 33 34 35 35 35 36 38 39 42 44 47 49 50 52 53 54 55 57 59 61 65
69 62 55 52 49 47 45 43 42 41 38 36 36 37 38 36 35 35 34 35 35 35 36 36 37 38 38 39 40 43 45 47 49 51 53 54 55 56 57 59 61 64 66 70

GFSNW_500_spd_018.txt.gz
Wind_Speed
27 24 28 17 13 17 12 7 11 14 9 15 17 18 7 6 3 3 6 8 11 28 45 57 58 52 47 47 40 42 42 40 41 37 38 41 38 35 31 32 31 29 25 21
28 23 27 18 13 14 12 9 10 13 4 9 10 14 15 2 4 3 6 11 18 38 34 46 47 43 39 37 35 34 35 40 40 43 41 42 40 34 34 33 29 27 26 20
29 23 26 19 13 12 12 11 9 12 3 6 6 8 9 8 5 14 22 25 31 37 40 36 31 31 33 30 30 32 34 36 38 37 30 28 31 29 28 29 28 25 25 20
30 23 26 22 12 11 11 14 11 10 6 2 3 4 6 5 8 19 20 19 20 27 31 28 25 28 28 29 27 25 27 30 33 30 29 28 28 28 28 28 25 27 20 26
29 23 24 24 14 11 10 16 13 11 10 6 2 2 4 6 10 17 18 22 22 22 23 23 21 21 19 22 27 28 19 27 27 27 28 26 27 28 28 28 27 26 24 24
31 25 23 25 16 11 11 18 15 12 13 11 6 5 6 6 12 13 14 18 18 20 19 22 24 23 17 19 26 23 22 22 31 27 24 27 29 27 26 26 26 26 26 24
33 25 23 25 18 13 13 20 18 14 14 15 9 9 8 12 12 15 16 12 11 12 18 19 21 25 26 25 26 28 30 25 24 21 25 27 23 25 26 27 27 26 26 27
33 26 24 25 19 15 15 22 22 17 15 16 14 11 11 16 16 18 19 14 12 18 12 19 24 30 31 29 28 24 24 22 21 25 25 25 24 26 26 28 27 28 29 27
33 28 25 24 21 16 16 24 26 21 16 19 17 13 14 26 22 21 21 20 19 17 22 15 18 22 27 31 30 31 29 25 26 23 24 25 22 29 29 26 26 22 19 25
34 29 26 25 22 18 18 26 28 24 20 22 21 18 20 24 25 25 22 19 16 18 19 16 15 16 16 16 16 18 16 20 29 25 25 29 28 22 22 24 22 24 27 27
36 31 28 26 23 19 20 26 31 28 24 23 25 24 25 25 22 18 17 17 18 17 17 17 18 15 15 15 17 20 20 21 24 23 24 26 23 26 28 26 25 25 26 27
38 33 30 28 26 21 22 22 33 32 29 26 28 29 29 25 21 21 17 17 14 14 14 13 12 13 13 14 14 16 17 17 17 19 19 21 22 23 24 24 26 27 28 30
38 35 31 30 29 24 23 23 30 36 34 31 28 29 32 30 28 27 22 20 19 16 15 17 15 13 14 13 13 15 16 17 19 21 21 22 24 25 26 28 29 30 32 33
38 36 32 31 31 27 26 25 25 33 38 37 33 31 31 32 33 30 27 26 25 23 20 19 19 18 17 16 16 17 18 19 20 22 23 25 25 27 29 31 32 34 37 39
37 35 33 33 32 31 28 28 27 28 35 40 39 37 35 33 32 31 33 32 31 30 30 29 28 27 26 24 24 24 25 26 25 24 27 28 30 30 32 33 34 37 40 43
37 35 35 35 34 34 31 30 29 27 29 32 40 41 39 38 37 34 32 31 32 33 34 33 32 31 31 31 29 29 31 31 27 25 26 29 30 31 33 36 39 41 44 47
39 39 38 37 36 37 34 31 30 31 29 30 32 36 42 41 39 38 38 37 37 37 36 36 36 35 36 35 32 26 30 28 26 25 26 30 32 35 37 40 42 45 48 50
44 42 39 39 37 37 36 34 32 33 34 32 30 30 32 33 36 38 39 38 39 39 39 38 37 35 32 31 26 27 32 29 29 30 32 33 35 37 39 42 46 49 52 56
47 47 46 41 39 39 38 36 35 35 34 33 32 30 29 31 32 32 33 33 34 34 35 35 34 32 31 29 30 33 32 30 31 32 34 36 38 40 43 46 50 54 57 56
48 47 45 41 39 39 41 38 38 38 36 34 31 30 30 31 31 32 32 33 36 36 35 36 37 32 32 35 36 36 35 34 35 36 36 37 39 42 46 51 53 50 46 47
40 41 43 44 43 43 43 42 41 39 38 36 33 31 31 31 31 32 34 35 36 36 34 37 35 32 34 37 36 33 33 33 35 35 36 39 42 47 49 45 43 44 46 46
44 43 41 42 43 43 43 43 41 38 38 36 32 33 34 34 34 34 34 35 35 37 33 35 32 30 32 34 33 31 31 33 35 37 39 42 41 38 39 41 43 44 44 45
51 47 46 44 44 45 43 40 36 28 29 32 31 33 32 31 33 35 35 37 37 35 34 31 28 29 30 31 31 31 32 35 36 37 34 33 35 38 40 41 42 44 46 48
48 48 48 46 46 44 40 35 29 23 23 30 37 37 36 32 29 30 32 34 34 36 33 26 26 28 29 29 29 30 31 31 30 31 33 35 38 40 42 44 46 48 49 51
53 53 50 46 44 40 39 36 34 31 28 25 26 29 32 37 40 37 32 30 32 28 22 23 24 23 23 23 24 25 27 29 32 34 36 38 40 43 45 47 48 50 52 55
58 57 52 46 43 44 42 39 34 33 32 30 28 28 27 27 29 29 29 28 26 25 24 23 22 22 22 23 25 27 30 32 35 37 39 42 44 45 46 49 52 54 57 60
62 56 52 46 45 44 43 40 36 36 35 34 33 32 30 28 28 26 25 26 26 27 27 27 26 25 25 27 30 32 35 37 39 40 42 45 47 48 50 53 56 59 61 65

GFSNW_500_spd_021.txt.gz
Wind_Speed
38 34 29 27 27 22 26 20 16 12 12 16 15 26 22 13 3 0 5 6 3 18 33 41 48 56 59 59 54 52 49 46 45 41 38 39 35 34 30 30 28 26 27 23
38 33 29 26 26 22 23 20 15 9 10 12 14 20 27 10 2 5 7 7 2 22 35 43 46 51 51 56 55 48 42 41 42 44 42 39 36 36 35 34 30 27 29 25
38 33 29 25 26 20 21 18 15 8 6 6 7 13 15 3 4 1 6 11 12 27 40 33 41 46 46 45 44 43 40 37 35 37 37 35 33 31 32 32 33 29 28 22
37 34 29 26 25 19 19 17 16 12 3 6 2 7 13 2 7 5 5 10 19 26 32 36 42 38 31 32 33 32 37 40 38 36 36 34 33 31 33 35 33 32 23 26
37 35 29 26 25 18 18 18 16 15 6 8 4 2 6 7 8 8 8 13 21 26 24 30 24 27 27 28 32 29 29 28 30 34 36 37 36 33 32 32 31 29 26 25
36 32 28 26 25 18 18 18 16 17 11 11 7 4 1 7 12 11 11 17 22 27 28 27 28 29 28 23 22 20 20 20 22 25 28 30 33 24 26 27 27 27 26 21
36 32 29 26 24 18 18 18 17 18 16 14 12 8 6 10 13 15 14 15 19 21 24 27 28 28 20 17 21 23 19 13 17 20 24 27 19 23 24 25 26 26 23 24
36 32 28 27 25 19 18 19 18 20 19 16 15 10 7 13 16 11 20 18 17 19 21 23 25 26 21 22 19 21 26 24 24 19 27 22 20 18 20 21 24 25 23 24
35 32 29 29 25 20 18 21 18 24 21 19 17 14 13 17 18 22 20 16 13 13 11 19 19 21 21 25 26 30 28 23 20 22 22 18 14 16 18 21 22 23 26 28
36 32 31 29 26 22 19 22 18 27 24 24 21 16 15 25 22 24 20 18 17 18 16 12 16 19 20 21 24 22 21 26 25 23 22 17 16 19 22 25 20 22 26 23
37 33 31 29 28 24 20 22 19 28 27 27 23 18 19 30 28 28 25 22 20 18 19 17 18 15 17 20 16 14 14 17 18 19 23 25 19 19 22 23 24 24 24 25
39 33 31 31 29 26 22 24 21 28 30 30 27 23 20 22 34 26 25 22 20 19 19 20 20 19 17 13 11 13 13 15 15 17 18 19 21 23 25 26 26 25 26 26
43 36 31 32 31 28 25 25 22 28 32 31 31 27 25 26 22 24 19 21 19 19 19 19 17 17 16 16 15 15 14 15 16 17 17 19 20 21 23 24 24 24 25 26
42 40 35 34 33 31 27 26 24 28 34 33 33 32 31 30 24 25 24 22 20 19 18 19 17 16 15 16 14 14 14 15 16 17 18 21 23 24 25 26 28 29 30 31
45 43 40 37 36 34 30 29 27 26 34 36 35 34 34 35 35 29 30 29 25 22 21 21 22 23 19 18 17 16 17 18 20 20 21 21 24 27 28 30 31 32 33 34
46 46 42 41 39 37 33 30 29 26 27 34 37 37 35 35 37 36 37 33 30 29 28 27 27 25 25 25 22 21 22 24 25 26 26 26 27 28 29 30 31 33 35 37
45 43 41 40 40 38 34 30 30 29 27 30 36 39 40 38 36 36 37 35 34 34 34 33 32 31 30 29 25 24 27 29 31 30 28 27 28 29 30 32 33 34 36 37
43 43 41 41 41 40 34 32 31 32 31 30 29 33 37 40 41 41 39 38 37 35 35 34 32 33 32 30 28 30 29 28 31 30 27 28 30 31 32 32 33 34 36 39
45 43 48 50 46 40 38 36 33 33 33 32 29 26 31 32 35 37 40 41 41 41 39 38 38 37 35 33 32 28 29 30 31 31 32 32 32 32 31 31 33 36 39 43
48 46 43 40 40 39 40 39 37 35 33 33 32 30 28 30 32 33 35 37 40 42 41 41 43 39 35 33 31 33 35 33 33 33 31 31 31 32 33 34 36 40 44 45
47 42 39 43 42 44 44 44 41 39 36 33 31 30 30 31 29 29 32 34 36 37 36 39 36 31 32 35 34 34 34 34 34 34 33 32 31 32 34 37 40 43 40 38
40 38 39 43 48 48 47 47 45 43 39 34 30 29 31 32 33 33 32 33 33 35 33 35 31 26 29 32 31 31 32 33 33 32 32 31 33 35 38 41 39 36 37 38
41 38 38 35 41 45 44 40 38 38 34 31 29 30 31 33 34 35 35 36 36 34 34 30 26 26 28 31 31 30 31 31 31 32 33 34 37 39 38 35 35 37 38 40
45 41 38 36 36 37 35 30 29 30 33 34 37 37 35 35 35 35 34 35 34 35 31 25 27 28 28 29 30 30 29 30 31 33 36 37 35 34 33 35 38 40 43 44
51 46 43 39 37 35 31 29 28 30 33 34 32 34 36 39 39 37 36 34 34 31 23 25 28 29 28 27 27 29 30 31 31 30 30 30 30 32 34 38 41 43 44 47
54 51 47 42 40 37 33 31 31 33 33 34 30 27 27 29 34 36 37 36 34 30 27 25 24 23 23 23 24 25 25 25 26 27 29 31 32 35 38 42 44 46 49 52
60 53 48 44 42 41 37 34 34 34 33 33 33 32 28 25 26 25 24 24 24 27 28 26 24 24 24 24 24 24 25 26 29 31 32 33 37 41 43 45 48 51 54 57

GFSNW_500_spd_024.txt.gz
Wind_Speed
45 41 36 34 31 29 25 25 22 22 21 21 17 13 18 21 10 7 6 4 9 7 25 32 42 45 46 49 48 48 48 44 48 47 44 38 41 36 36 33 33 32 30 25
44 38 35 34 30 28 24 22 20 20 18 17 11 9 17 17 10 8 6 8 2 9 25 31 40 45 46 49 46 43 44 45 45 44 43 48 44 44 30 36 33 30 28 26
43 39 35 33 30 28 23 20 18 19 14 16 10 9 14 14 8 7 2 6 4 5 28 30 38 47 47 46 45 41 44 42 40 38 43 37 26 28 28 30 31 29 28 26
44 38 35 32 29 27 22 18 17 17 14 12 5 7 13 8 5 3 4 6 12 8 25 30 37 43 43 46 47 46 39 40 37 37 38 40 37 34 33 31 28 32 25 30
47 40 34 32 29 28 22 17 17 16 14 15 8 2 5 1 5 3 6 7 15 21 21 14 24 35 36 34 41 41 34 33 36 35 35 38 40 39 38 32 34 32 33 31
55 46 42 35 30 27 22 17 17 15 14 15 11 7 4 4 5 5 4 11 21 25 22 27 32 26 20 22 18 17 29 31 32 34 34 32 37 37 37 34 32 28 32 20
52 45 39 35 30 27 22 19 17 13 14 17 15 8 4 8 7 9 12 20 24 27 29 35 33 27 25 25 24 23 24 26 30 31 34 36 30 30 35 33 27 26 24 25
48 44 38 33 31 27 22 20 18 14 16 18 16 11 9 13 13 12 18 19 21 25 29 30 24 24 21 25 27 26 25 24 23 25 24 21 24 25 25 27 25 26 25 24
47 42 37 33 32 27 23 20 19 15 18 20 20 15 13 12 17 20 20 20 21 21 21 28 32 31 30 30 24 27 27 23 21 18 16 14 20 23 25 24 20 21 22 24
48 43 37 34 32 28 25 22 20 16 21 22 21 19 16 15 17 21 24 21 21 22 23 26 28 30 27 23 23 31 27 26 22 19 16 16 23 24 25 19 14 18 21 22
53 43 38 35 33 29 26 22 21 18 20 24 22 20 19 18 19 22 26 23 21 20 19 25 25 25 25 20 25 27 24 29 25 23 25 21 19 21 17 20 22 22 23 23
53 46 40 36 34 30 27 24 22 19 20 27 24 27 22 24 28 26 24 26 24 21 24 19 15 24 23 21 19 20 24 22 20 20 16 13 13 22 22 18 20 22 23 24
49 44 41 37 35 31 29 26 23 21 21 29 26 25 24 24 37 33 28 24 25 25 24 21 22 18 19 19 18 16 17 14 11 11 9 12 13 16 18 19 20 21 23 23
52 50 42 38 35 32 29 27 25 22 22 29 28 27 27 22 35 32 27 25 24 23 22 23 22 22 22 19 18 18 16 14 12 12 12 13 15 17 20 22 23 24 24 26
49 47 43 39 36 33 32 30 28 24 24 27 31 28 31 27 26 37 31 27 26 26 24 23 22 22 21 20 17 15 14 13 13 13 14 16 17 18 22 26 29 30 31 31
43 47 41 39 37 35 34 32 31 26 24 25 31 31 31 33 30 27 33 32 26 23 24 25 24 24 23 21 19 16 15 16 17 17 18 19 21 25 27 29 30 31 31 32
46 42 41 44 40 37 36 33 28 29 25 25 29 33 33 32 33 34 32 33 34 31 28 26 25 27 27 26 22 20 20 21 22 22 23 26 28 30 30 30 30 30 31 31
43 44 41 42 42 41 37 35 34 33 31 28 27 27 33 34 32 33 37 38 38 38 38 33 29 30 31 30 23 22 25 26 27 30 31 31 30 29 28 29 30 30 31 32
46 47 44 44 47 44 39 39 36 36 34 30 26 22 25 33 33 35 35 34 39 38 39 38 37 35 36 30 28 28 30 30 32 33 33 31 29 29 29 30 31 31 32 33
43 43 44 46 48 48 41 41 39 38 35 31 28 27 25 26 31 35 37 39 39 40 39 40 39 34 33 33 32 33 35 35 32 32 31 31 33 35 35 33 33 34 33 32
41 38 40 43 45 43 42 44 43 40 37 33 30 28 27 28 27 29 34 34 37 41 40 41 41 36 35 36 35 36 34 33 33 35 35 34 33 33 32 30 29 31 33 35
42 37 35 44 48 49 50 52 48 44 37 35 32 30 29 28 28 28 28 29 31 33 34 35 33 31 33 32 32 33 33 33 34 32 32 32 32 32 31 31 32 34 36 39
45 46 47 42 43 43 39 39 38 35 34 36 32 31 29 30 31 31 31 32 32 29 29 27 24 27 29 30 29 31 31 32 32 32 32 32 32 32 33 33 34 36 37 35
49 49 50 45 43 39 34 34 37 36 38 34 34 34 32 33 34 35 34 34 33 34 31 29 30 30 31 32 32 32 31 30 30 30 31 32 32 32 33 34 33 32 33 35
51 44 44 36 37 36 31 29 30 35 34 35 37 36 34 35 37 37 35 34 35 31 26 26 27 27 27 28 29 30 31 31 31 32 33 33 33 32 30 30 31 32 35 37
49 46 43 39 37 33 27 25 28 30 33 35 32 32 33 34 34 34 36 35 31 27 26 26 27 26 26 27 29 31 32 33 33 32 31 29 28 29 29 31 32 35 38 41
56 50 47 42 39 36 33 30 28 29 31 32 30 30 31 31 32 29 27 25 28 32 32 33 34 34 32 30 30 30 30 29 28 28 28 29 30 30 32 35 38 40 43 46

GFSNW_500_spd_030.txt.gz
Wind_Speed
41 43 36 30 28 44 44 41 39 31 28 28 22 18 24 26 23 22 22 21 19 12 12 11 15 19 25 35 34 10 29 35 19 26 35 31 29 29 36 36 29 28 27 25
28 44 33 32 33 40 39 39 35 32 28 22 20 20 22 24 23 22 21 17 13 12 11 10 21 26 30 34 29 17 42 20 17 20 29 35 35 33 32 30 31 29 29 26
39 34 33 31 35 47 39 38 35 29 23 20 20 20 19 20 17 20 16 12 11 9 5 18 24 30 29 23 25 34 34 11 22 27 21 33 30 30 20 30 27 26 27 29
46 39 33 35 37 46 39 38 32 25 21 21 19 18 15 15 14 16 11 9 7 5 12 21 27 31 29 29 36 25 13 22 12 21 18 31 35 27 24 23 20 22 25 29
44 40 34 34 36 46 38 34 30 24 21 20 17 18 13 8 11 9 8 4 6 4 15 20 24 29 31 33 28 29 29 23 19 20 21 25 17 20 27 28 26 25 25 25
46 41 42 46 47 45 38 33 28 27 22 19 15 17 10 7 11 6 7 7 9 8 21 26 27 28 34 32 28 27 24 26 30 25 20 21 21 17 22 25 20 25 23 17
43 39 44 41 34 45 36 31 29 27 20 18 14 16 9 10 10 3 4 9 11 22 23 25 29 29 29 25 24 25 21 23 21 23 24 24 19 23 22 24 25 19 21 21
39 42 37 43 38 42 35 32 31 25 20 17 14 14 9 9 6 5 5 3 15 23 23 25 31 31 35 36 30 30 28 26 26 23 21 24 21 19 21 24 27 31 27 27
45 40 41 36 42 37 35 33 29 24 21 18 15 15 10 6 5 5 2 10 18 21 20 24 30 35 36 35 32 28 29 31 28 28 26 17 20 19 20 21 20 24 29 31
49 41 36 44 47 41 33 31 28 25 21 18 17 17 14 9 10 8 9 8 20 20 21 18 20 25 30 31 28 28 26 26 28 27 26 23 17 19 20 17 16 21 23 24
45 36 38 32 37 39 34 30 28 24 22 18 18 19 16 13 12 11 13 13 14 24 22 24 25 24 22 21 22 24 21 19 16 18 14 14 19 16 15 13 17 20 21 20
47 38 39 34 34 38 34 33 29 24 22 20 18 21 19 13 15 12 18 15 19 18 19 18 19 19 18 17 19 20 19 14 17 15 14 16 16 16 14 17 17 17 16 17
48 42 33 36 37 38 38 32 30 25 23 22 19 22 23 20 15 14 22 23 18 19 18 19 15 15 17 17 17 19 18 18 14 19 18 15 16 14 16 12 14 17 14 13
50 40 33 33 40 39 38 34 31 26 23 22 19 22 22 18 13 11 19 28 23 22 18 16 17 14 21 21 19 21 15 19 17 17 16 21 22 17 14 12 10 13 15 15
48 38 38 32 41 39 36 35 31 27 24 20 20 23 23 19 17 13 22 21 29 23 22 21 21 17 21 18 20 21 15 16 20 20 21 15 13 12 12 11 11 12 12 13
42 36 33 43 37 36 35 35 32 29 23 22 18 21 22 23 16 18 28 27 22 27 26 25 24 22 21 19 19 23 17 17 15 16 15 12 11 11 11 12 11 13 15 19
40 37 37 42 43 43 38 35 31 30 24 22 20 20 21 22 21 17 18 21 29 31 29 31 27 24 23 22 22 21 20 19 17 13 14 15 14 12 13 14 16 19 22 25
45 39 39 40 42 43 39 34 32 26 24 22 21 17 18 22 21 19 15 16 19 31 32 26 23 23 19 17 17 16 14 16 17 17 15 15 15 17 18 20 21 24 27 30
44 36 39 43 45 44 38 36 35 34 27 30 24 20 18 20 23 23 20 18 18 23 24 28 27 25 22 21 20 21 19 18 19 20 19 18 19 21 23 24 26 29 32 32
39 41 37 43 44 44 41 39 39 39 36 33 30 27 22 18 19 23 26 24 21 21 24 28 32 29 26 28 25 22 22 24 28 27 25 25 24 27 28 30 32 34 35 33
48 46 38 35 43 46 46 43 42 43 41 35 32 27 22 22 23 23 24 26 27 25 22 23 23 20 30 31 32 34 28 31 28 28 31 31 33 32 32 34 36 35 34 35
44 42 36 34 40 49 49 48 46 47 42 39 34 28 25 26 25 23 21 21 23 26 24 24 23 17 23 27 31 34 37 39 37 37 34 33 34 35 36 36 35 35 36 35
44 43 39 35 34 36 37 35 37 38 39 37 33 30 30 29 28 25 25 25 23 21 22 21 18 23 25 27 28 30 30 32 34 34 35 35 36 35 33 34 35 35 35 34
52 47 42 39 37 37 33 29 27 28 34 39 37 36 34 30 30 30 29 29 28 27 23 18 18 21 23 24 26 26 26 27 28 29 28 29 30 33 33 34 34 34 34 33
53 52 47 37 37 36 34 34 33 32 36 39 41 39 38 35 38 36 35 33 32 28 22 22 23 25 26 25 26 26 26 26 26 27 30 31 32 32 32 32 32 32 31 32
55 54 48 38 34 33 29 25 25 28 30 35 38 39 40 39 39 36 34 33 30 27 27 27 27 26 26 27 27 27 28 29 29 30 30 29 29 29 30 30 30 31 33 35
55 52 49 42 36 32 28 26 22 24 25 24 27 31 33 32 34 35 33 29 29 31 31 32 31 30 29 28 27 26 26 27 27 26 26 27 27 28 30 31 32 33 33 33

GFSNW_500_spd_036.txt.gz
Wind_Speed
23 11 19 23 41 50 47 39 36 47 41 41 39 40 33 28 30 29 27 25 28 26 28 29 30 21 26 19 14 13 12 7 16 4 6 9 8 19 26 30 14 21 26 31
35 24 27 28 45 43 48 41 38 37 40 40 37 36 29 31 26 27 24 25 26 24 29 28 20 19 21 15 20 16 12 7 10 8 12 12 15 11 21 26 7 24 23 25
42 30 31 36 46 38 39 40 33 39 42 37 29 31 29 26 23 23 25 26 25 27 28 20 13 16 14 21 20 17 16 9 3 9 8 9 11 8 13 15 26 26 25 21
36 29 41 37 41 47 43 35 37 43 30 35 29 28 27 23 20 24 24 22 16 22 19 10 11 17 25 26 25 25 16 3 9 9 7 7 31 30 27 28 26 25 22 20
37 32 42 38 43 45 38 31 36 33 35 37 28 27 22 20 22 21 23 14 15 19 12 11 17 23 29 28 24 15 15 4 14 15 9 34 27 30 26 25 17 37 31 34
41 41 45 43 37 37 42 32 26 30 32 38 30 24 22 19 20 23 13 16 9 8 14 16 22 29 29 24 19 21 7 5 12 13 19 21 19 24 19 17 17 15 20 17
47 50 43 39 37 37 39 29 18 27 34 33 24 20 22 18 22 14 16 16 8 12 8 16 24 25 24 22 21 23 15 3 12 15 21 20 13 16 22 19 17 18 16 16
50 44 42 39 40 34 29 25 21 30 29 24 24 23 18 18 21 11 17 13 10 9 10 20 25 24 24 22 21 19 14 8 10 16 28 18 13 14 18 18 17 21 20 18
47 45 36 32 36 37 32 22 20 29 25 22 26 20 16 20 13 13 12 10 9 12 19 27 26 30 29 27 25 24 14 11 13 12 10 9 7 8 11 13 14 13 14 16
51 43 41 38 40 39 34 23 23 31 25 25 21 18 13 20 11 13 7 3 7 13 22 25 27 29 31 28 21 19 13 12 9 9 9 9 9 6 11 14 16 16 19 19
49 44 38 44 39 33 32 18 31 32 30 23 21 16 17 13 11 9 14 4 9 12 20 25 27 21 24 25 23 21 16 12 10 9 7 11 13 12 11 15 15 15 16 17
51 45 43 45 39 35 28 19 33 36 29 20 22 12 17 11 11 14 14 7 10 10 14 16 21 17 20 24 27 26 18 15 11 8 10 12 15 14 14 16 16 14 14 14
53 48 44 42 36 33 22 22 34 33 23 23 23 12 19 13 15 13 11 10 14 12 13 10 9 11 17 22 25 23 19 14 12 13 14 12 11 10 13 11 11 12 12 13
57 50 42 41 38 31 25 24 30 31 24 24 22 9 15 15 16 13 11 8 11 18 18 13 13 16 15 17 19 17 15 13 14 15 13 13 10 12 13 12 11 11 11 13
57 52 44 40 36 35 21 22 26 30 26 24 23 11 16 18 12 15 12 12 11 17 21 19 19 16 16 18 17 14 15 16 17 16 16 18 19 15 14 11 10 11 12 12
52 45 44 43 38 28 22 25 31 30 24 21 20 12 16 16 14 9 11 13 15 20 20 24 25 24 22 20 18 18 16 15 15 16 16 17 18 15 16 17 15 14 14 14
50 46 42 40 34 26 23 24 29 29 22 20 18 7 15 19 14 12 10 9 14 22 23 19 18 19 19 17 18 19 14 14 15 14 17 18 16 17 18 18 17 16 14 12
50 47 40 32 30 26 23 26 31 27 24 22 18 10 11 18 17 17 14 8 10 16 22 22 20 20 15 16 19 17 17 17 18 16 17 20 20 20 17 15 15 14 14 14
51 44 36 32 28 22 19 28 30 32 28 23 19 13 11 16 18 16 17 12 13 13 17 19 19 18 16 16 18 17 18 19 20 21 23 19 19 13 13 13 11 12 13 14
44 41 37 33 25 20 22 32 32 34 29 27 22 21 13 14 15 16 15 16 14 12 16 18 18 19 19 21 24 24 24 25 24 21 20 17 16 14 14 13 13 13 14 17
44 41 37 31 24 21 27 34 37 37 34 31 26 24 19 13 11 13 13 13 17 15 14 15 14 15 17 15 19 23 27 27 27 26 22 20 20 19 18 17 17 19 22 24
41 41 40 34 27 25 26 34 37 38 38 32 26 24 22 19 14 13 12 11 12 14 17 15 13 18 19 19 21 23 22 24 28 29 27 25 25 24 24 24 25 27 29 31
45 40 42 38 34 28 26 29 32 38 36 28 27 24 18 20 17 19 17 17 13 11 11 12 19 19 18 19 20 22 25 27 26 27 28 29 31 30 29 30 33 36 36 34
40 45 42 37 34 24 21 23 24 28 33 33 28 27 28 24 21 24 20 21 19 14 10 11 12 17 19 21 21 20 19 20 23 25 27 28 29 31 33 31 30 31 31 29
44 47 44 38 32 25 20 16 17 23 30 34 34 33 30 28 30 28 28 25 22 17 14 16 15 14 14 15 18 21 23 24 24 24 25 26 27 27 28 28 28 27 27 27
45 50 48 42 38 31 26 23 21 20 23 28 33 35 37 35 35 32 30 28 22 20 21 21 22 19 17 18 18 19 20 19 20 20 21 22 23 23 24 26 27 28 28 28
52 49 48 46 42 36 31 28 22 16 16 19 24 28 30 32 34 33 32 29 27 25 26 26 24 23 22 22 22 22 22 22 23 23 23 24 24 25 26 27 26 26 25 24

GFSNW_500_spd_039.txt.gz
Wind_Speed
21 12 2 8 2 25 42 54 47 45 38 40 52 32 28 33 32 30 32 34 33 31 32 32 31 28 29 26 22 22 23 15 17 17 16 22 23 19 27 28 30 29 30 7
25 17 15 19 15 28 39 53 44 23 38 37 42 26 19 25 27 29 31 31 30 30 28 29 28 26 28 20 21 19 20 15 15 15 18 15 24 19 21 24 27 29 31 9
25 22 20 30 22 31 40 42 39 26 29 36 35 22 19 24 28 27 27 29 29 25 24 26 31 29 24 19 20 19 13 10 8 11 18 18 21 23 23 23 16 11 24 25
27 24 19 30 26 33 28 25 37 31 38 38 32 28 24 26 27 24 27 26 24 24 25 28 27 19 20 18 23 18 12 9 9 9 7 13 12 7 8 4 19 20 25 26
28 26 27 31 27 32 30 26 30 26 22 25 25 23 20 27 27 25 24 21 23 22 25 28 23 20 18 25 24 20 20 7 7 15 6 13 16 20 22 22 26 23 25 24
24 19 29 40 35 42 27 20 25 23 29 27 29 26 22 22 25 21 19 20 19 26 19 15 16 19 25 30 26 29 15 1 12 9 10 11 15 17 10 11 21 21 21 26
23 31 32 39 40 30 30 26 20 24 28 26 23 24 21 22 21 17 15 19 20 18 14 12 12 21 35 28 25 23 17 2 8 13 10 18 12 8 10 15 23 19 25 24
29 31 30 34 35 33 33 30 21 22 22 27 29 27 21 22 23 16 18 21 16 14 13 13 19 31 33 24 20 21 18 5 8 14 13 12 11 14 11 11 16 17 14 15
36 34 32 38 34 35 28 29 26 21 20 25 25 27 24 22 17 14 17 18 15 13 18 19 26 29 25 27 25 14 11 1 11 15 13 10 5 7 9 11 9 15 14 13
40 37 37 37 36 32 28 29 24 19 23 25 22 23 22 16 13 12 14 11 12 18 22 27 28 25 27 30 20 14 6 7 16 8 7 6 6 6 7 7 9 8 11 14
42 41 37 34 34 31 26 25 17 22 26 22 22 22 19 12 12 12 15 5 9 17 21 27 30 28 26 22 20 16 12 11 9 10 9 9 8 6 7 8 8 10 11 12
47 45 39 37 33 33 32 24 18 18 30 21 22 22 14 11 11 14 13 8 10 18 23 26 28 25 21 21 20 18 16 13 8 9 12 13 15 14 12 12 13 12 12 13
52 44 41 37 35 36 31 27 17 19 26 26 22 22 10 10 9 14 19 11 13 15 20 20 20 20 23 25 23 23 20 16 13 14 14 12 11 11 13 14 15 15 13 15
53 51 43 39 41 39 29 25 19 21 27 25 21 15 9 8 11 14 11 15 12 12 14 18 16 14 20 22 25 27 26 20 17 15 14 14 13 12 11 10 10 10 13 14
52 51 46 44 42 34 25 22 13 18 25 25 19 14 7 11 11 11 9 10 12 18 14 13 12 15 17 20 19 20 20 20 18 17 14 12 11 11 12 13 12 14 11 13
56 52 45 45 42 34 27 21 16 19 28 23 20 15 7 16 11 10 11 9 12 14 21 20 16 18 18 18 20 20 18 15 14 15 13 15 16 14 12 12 12 12 12 11
57 50 43 43 40 33 26 15 16 23 27 21 17 15 9 13 11 9 7 9 13 15 18 21 20 20 17 16 16 18 15 14 14 16 15 15 16 18 16 15 17 15 15 13
58 49 44 40 35 29 22 17 21 27 24 22 19 15 10 17 17 11 10 9 9 16 22 21 20 20 18 19 21 19 20 17 15 15 13 15 16 16 17 17 19 17 16 11
55 48 41 38 33 28 24 16 21 28 27 23 21 14 10 17 20 12 12 8 7 10 15 23 21 18 18 18 15 20 21 19 17 17 16 16 18 20 20 17 15 15 13 11
50 44 41 35 31 27 21 19 24 27 29 26 23 18 13 14 18 19 14 13 9 10 11 14 16 12 13 12 10 10 17 20 19 21 21 19 21 19 18 12 13 14 13 13
44 43 37 32 28 25 22 19 25 29 26 27 25 21 15 14 15 15 16 15 15 13 12 11 13 14 15 16 16 15 13 15 20 22 22 20 21 18 17 18 18 15 15 16
43 42 37 32 30 25 22 20 23 26 23 28 27 22 18 14 12 12 13 13 13 14 15 13 13 18 17 16 17 16 13 16 23 26 25 23 21 22 23 21 21 21 22 23
43 40 36 34 30 26 21 19 19 20 23 28 26 24 22 21 16 14 14 13 11 10 10 14 19 17 15 14 15 15 13 15 21 25 27 28 27 26 26 27 27 27 29 31
38 37 36 34 32 26 18 12 9 13 20 25 28 27 24 20 16 18 17 18 15 11 9 10 12 15 18 18 16 15 14 16 20 22 24 24 26 28 29 31 33 33 35 36
40 37 37 36 33 31 24 16 12 16 21 24 27 31 31 29 28 25 23 21 19 12 13 12 12 12 11 11 14 17 18 18 19 20 20 22 24 25 26 26 25 26 28 28
43 43 42 40 37 36 31 27 24 16 15 23 28 31 35 34 35 33 29 25 20 20 20 19 19 18 17 16 16 16 16 16 16 16 18 19 20 22 22 23 24 24 25 26
44 46 43 45 42 41 37 33 31 24 19 20 23 28 32 34 36 37 36 28 26 26 26 25 23 21 20 22 22 21 20 20 21 21 21 22 22 22 24 25 25 27 27 26

GFSNW_500_spd_045.txt.gz
Wind_Speed
60 33 2 5 5 15 11 19 8 24 54 75 58 40 27 38 27 20 20 24 32 34 36 36 35 33 33 28 25 22 24 30 31 29 30 32 30 26 29 34 36 42 51 47
49 20 8 1 11 10 16 22 16 21 45 47 40 35 30 34 24 21 22 18 21 29 35 35 32 28 27 25 21 24 27 31 29 24 27 25 27 24 28 32 38 42 48 24
39 4 9 2 9 10 19 19 17 27 41 29 28 27 29 36 34 20 20 21 23 23 27 30 28 25 25 23 23 26 29 27 23 18 16 21 19 23 29 33 36 32 8 5
30 12 10 7 6 6 11 14 25 24 39 33 18 22 31 33 26 18 16 18 20 21 22 22 20 23 24 23 26 27 21 17 15 10 13 17 21 18 19 24 18 8 7 4
19 12 10 6 11 10 11 27 27 32 34 33 24 28 29 26 26 22 21 18 19 13 15 21 20 22 23 23 24 19 16 13 11 3 10 13 4 8 5 3 3 14 11 8
9 13 15 13 17 18 23 26 25 27 31 26 20 17 22 22 19 19 19 21 14 13 17 16 19 20 21 23 21 19 13 17 7 1 6 10 4 2 2 4 2 8 10 11
7 9 12 19 22 18 29 21 19 25 32 25 25 30 21 16 14 16 19 19 13 12 12 15 15 18 21 20 21 16 22 18 4 2 8 13 7 4 10 4 3 3 12 11
9 8 13 26 26 23 22 19 12 15 12 21 29 20 16 14 13 14 15 15 15 13 14 17 16 19 18 17 18 23 23 14 5 6 8 8 5 7 9 7 3 3 5 8
11 13 27 27 23 22 23 20 18 20 18 28 24 21 19 15 12 12 17 19 16 14 16 20 18 17 18 20 19 25 21 11 8 8 8 6 5 6 8 1 7 8 9 4
18 24 27 26 24 26 24 19 18 18 22 19 18 16 19 15 11 14 16 19 19 21 25 26 18 18 22 16 21 20 15 11 11 13 11 10 9 8 6 6 7 11 10 10
23 26 35 32 23 22 24 17 19 19 17 11 12 16 18 17 15 12 17 17 19 14 16 21 17 17 20 19 20 20 16 19 18 14 11 9 8 7 6 5 5 7 9 10
28 26 37 33 26 23 19 20 19 12 12 6 9 14 13 13 13 12 13 15 15 10 9 14 13 16 24 28 24 19 18 20 16 13 10 8 7 5 5 5 6 5 6 10
32 32 37 33 30 24 20 18 12 9 9 8 12 13 12 13 13 8 13 11 10 9 13 16 18 22 25 27 22 18 22 20 14 10 7 7 6 5 5 8 7 8 10 11
36 38 40 36 29 25 24 15 14 8 9 11 12 10 14 16 12 13 10 9 13 9 16 19 21 20 23 24 21 21 25 19 13 9 6 6 6 5 4 6 9 11 11 9
37 43 42 44 31 27 22 18 14 11 6 5 13 10 10 10 9 7 7 10 11 15 19 23 25 22 22 20 19 19 20 18 15 10 10 8 7 6 5 6 7 9 8 8
40 45 42 36 32 27 25 20 15 11 9 11 11 10 8 4 1 4 15 9 11 20 23 22 21 22 21 18 16 17 18 17 16 16 14 12 8 8 7 8 9 9 10 7
41 44 36 33 31 29 25 16 14 10 8 13 11 6 10 6 3 7 13 11 13 16 19 21 23 22 19 17 18 18 19 19 19 18 16 12 9 11 8 10 8 9 7 8
41 43 35 34 28 22 18 18 13 10 8 13 12 7 6 0 5 3 2 7 13 14 16 19 19 18 17 18 20 16 16 15 16 16 14 12 14 14 12 13 11 11 11 9
42 39 35 30 25 19 19 19 13 7 6 13 12 9 5 3 6 5 6 7 7 12 16 18 18 15 12 18 16 15 14 14 13 14 14 12 13 12 12 13 14 12 10 11
42 38 35 29 21 23 22 18 15 11 8 13 13 12 6 4 9 8 7 6 3 6 9 15 16 18 21 19 18 14 13 14 14 13 13 11 10 8 9 11 12 12 13 16
37 37 30 26 21 20 22 19 13 9 8 16 18 15 10 5 4 11 9 7 6 3 4 7 14 14 14 14 12 13 14 12 12 15 16 15 14 13 14 14 15 15 19 14
32 27 23 22 21 21 20 18 15 8 10 17 20 16 14 8 5 7 14 13 9 6 5 4 6 9 13 13 13 15 14 12 11 13 18 18 16 17 16 17 18 19 19 16
29 28 24 22 22 21 19 14 11 11 10 15 22 20 17 15 14 10 9 12 13 13 11 11 9 8 7 9 11 12 13 13 13 12 13 14 13 14 17 18 17 17 19 20
25 26 26 24 20 19 13 13 17 11 10 14 19 22 22 20 18 14 11 9 9 9 9 7 8 10 11 12 11 10 11 13 13 13 14 14 15 15 17 19 20 21 21 23
30 32 30 26 24 23 20 19 16 13 11 12 18 20 19 24 24 21 17 15 12 12 11 10 8 7 7 9 12 14 14 13 12 13 13 14 15 16 19 22 22 24 24 23
27 32 34 33 31 28 25 24 24 18 16 14 15 17 20 22 24 27 24 20 18 19 17 16 14 13 12 11 10 10 10 12 14 16 16 16 17 18 19 20 21 21 21 22
20 31 34 35 35 34 32 31 28 26 22 19 18 18 18 23 26 26 31 26 27 27 26 25 22 19 17 16 16 15 15 14 14 15 15 16 17 18 19 20 20 21 22 23

GFSNW_500_spd_048.txt.gz
Wind_Speed
80 46 12 13 9 10 10 14 4 4 26 51 56 52 35 29 29 30 24 26 24 27 26 30 29 27 27 27 27 26 23 24 23 24 28 34 36 33 36 40 33 37 36 20
64 32 8 12 8 7 15 13 6 10 26 51 50 43 38 31 33 25 23 23 26 26 28 29 28 29 28 27 27 26 25 24 24 25 30 33 33 33 24 26 31 25 30 15
51 19 9 9 7 11 9 9 10 10 33 52 38 38 30 33 31 24 21 19 25 26 30 30 31 30 31 29 27 24 23 24 23 27 30 30 17 19 26 29 21 21 12 10
42 11 6 5 7 6 11 17 23 23 37 39 34 34 33 34 28 21 17 20 18 21 24 29 31 31 30 26 23 21 24 23 24 24 25 15 15 19 15 16 10 16 11 13
35 8 5 3 6 10 9 15 15 24 36 29 27 27 33 37 32 25 16 13 16 18 19 22 24 25 21 21 21 22 23 21 22 18 14 17 10 7 5 5 7 7 9 15
31 6 5 6 15 14 15 22 33 35 31 27 25 29 30 29 26 22 19 18 12 15 18 16 16 16 18 20 22 22 23 23 19 19 12 10 8 6 4 5 9 6 13 14
24 3 7 10 13 18 21 24 24 30 18 19 24 31 28 31 24 21 21 17 17 17 14 13 14 16 16 17 20 24 23 23 17 18 8 7 4 8 7 5 7 5 6 7
15 7 14 11 14 18 16 22 25 19 21 19 21 25 25 21 17 16 16 18 20 16 15 14 15 14 15 19 21 23 22 20 21 13 12 11 7 3 7 11 6 5 6 7
5 14 19 17 16 15 22 21 18 13 20 22 24 22 21 19 14 14 16 16 18 16 16 12 10 13 14 18 20 17 17 24 17 12 13 9 5 3 3 7 10 8 5 11
4 17 26 24 21 21 19 20 19 18 20 25 26 19 18 14 10 10 14 17 21 19 15 14 13 13 16 18 16 17 21 23 15 14 13 10 11 8 5 3 6 1 3 6
9 25 30 29 24 22 20 20 15 20 24 23 19 17 17 13 11 9 13 16 18 20 18 21 18 18 20 17 16 21 26 23 15 17 16 13 10 7 6 4 6 6 7 5
10 32 29 31 28 23 21 20 20 20 18 19 18 16 15 14 16 15 12 15 13 16 18 13 18 21 22 18 20 25 23 18 22 19 14 10 9 6 6 5 5 5 8 10
12 35 37 32 30 27 21 19 20 17 15 11 15 15 14 12 14 11 10 13 15 14 15 12 18 21 22 21 27 28 24 24 19 16 13 9 7 6 5 8 8 8 9 9
15 37 44 34 28 26 21 21 14 13 10 11 14 15 13 12 12 9 11 15 14 16 14 17 22 23 27 31 32 27 25 25 20 15 11 8 6 5 7 9 10 11 10 9
19 40 46 39 31 24 23 18 14 10 7 10 15 13 9 8 8 11 11 11 11 14 9 17 20 24 30 32 23 22 27 23 20 15 10 6 6 6 8 9 9 8 8 8
24 40 47 35 33 27 23 16 12 10 5 4 7 7 3 3 7 4 6 8 13 12 15 23 19 20 23 21 17 18 16 17 16 12 10 9 7 7 7 7 6 7 7 6
31 41 43 38 31 24 21 15 12 8 7 4 7 5 2 5 2 4 13 5 10 14 18 22 22 20 19 17 15 15 14 15 16 18 17 15 10 8 7 5 7 8 10 9
38 43 42 37 30 22 21 17 12 9 5 3 13 8 2 3 3 8 11 9 7 10 14 17 20 18 17 17 17 15 16 18 19 18 14 11 10 9 11 12 10 11 5 7
40 40 36 32 27 22 21 15 12 6 1 4 11 8 4 2 3 7 7 8 11 12 14 14 16 14 11 17 12 15 17 16 14 11 11 12 11 12 13 12 12 13 13 9
37 35 31 30 25 21 18 16 13 7 5 5 11 10 6 3 7 7 6 4 3 7 12 13 14 18 20 19 15 15 15 12 10 10 11 12 13 10 10 9 11 13 13 12
34 30 27 25 23 19 16 15 10 8 7 6 13 12 9 4 3 9 5 5 4 3 4 8 13 16 18 20 17 15 12 14 14 14 15 15 14 10 9 10 11 13 13 14
31 29 25 23 19 15 16 16 12 10 9 8 12 15 12 6 4 2 8 8 6 4 2 3 6 13 14 17 17 16 16 15 13 11 11 14 14 14 14 15 14 15 17 18
30 29 26 22 20 14 12 12 11 12 10 8 11 16 16 14 10 5 3 6 10 8 8 6 5 4 8 13 16 13 13 14 15 12 12 14 16 16 14 13 12 15 15 17
28 27 23 21 20 14 13 12 14 15 12 9 10 16 20 17 14 11 8 5 7 8 8 8 7 8 7 8 8 10 12 14 14 13 12 12 12 12 10 10 14 11 12 16
24 28 25 21 19 17 17 13 13 15 16 13 12 13 17 20 18 17 13 10 9 10 10 9 8 7 7 9 12 12 11 11 10 10 11 11 12 14 14 15 16 18 19 21
24 28 29 28 26 25 23 19 17 17 17 15 14 14 16 18 17 16 19 18 16 16 17 16 14 12 10 9 9 10 11 12 13 14 14 14 14 14 15 17 18 20 19 19
4 14 30 33 34 33 32 28 23 23 24 24 20 17 16 17 17 18 21 24 28 23 22 23 23 20 17 15 14 13 13 12 12 13 14 14 16 17 18 18 19 19 19 19

GFSNW_500_spd_051.txt.gz
Wind_Speed
75 73 43 18 9 11 13 15 7 8 10 30 59 51 40 31 28 33 28 27 23 25 26 27 24 24 25 26 26 26 28 27 25 26 27 29 30 30 33 37 36 39 36 37
74 64 33 14 6 9 15 13 10 4 15 49 58 38 30 29 27 26 26 24 22 22 27 25 28 29 27 26 26 26 25 25 23 24 27 28 28 32 34 34 26 19 28 18
72 55 26 7 5 11 15 1 7 16 17 44 49 38 27 29 24 24 26 24 22 21 22 26 28 27 28 28 27 27 27 23 23 26 28 26 25 28 23 24 21 21 16 13
69 45 17 10 6 9 13 6 21 19 30 46 40 30 30 27 24 23 21 22 24 23 24 26 29 28 28 29 28 27 26 21 23 26 27 24 23 22 22 18 14 14 10 17
65 36 12 9 3 6 8 11 18 27 43 44 33 33 31 31 25 19 20 18 20 22 24 26 28 28 27 27 27 27 23 21 25 21 22 21 18 21 16 13 9 12 9 13
60 25 5 2 1 4 8 14 26 35 34 26 26 29 31 29 25 21 15 15 11 13 19 22 24 25 27 27 27 25 22 23 21 17 18 19 17 18 15 9 11 11 12 14
56 18 4 4 3 10 14 20 28 34 20 28 31 33 31 28 24 19 19 16 9 11 16 20 20 19 19 20 22 22 23 23 18 15 18 17 16 15 13 10 9 9 11 13
53 15 6 3 8 9 20 25 27 24 19 23 26 33 31 25 20 19 15 13 12 16 16 16 15 17 19 20 21 22 21 19 17 16 15 14 11 10 11 9 9 12 12 12
50 11 10 9 14 16 22 17 18 13 15 21 25 23 23 20 19 15 13 12 15 16 15 17 17 17 18 18 19 20 18 16 14 17 20 16 13 7 7 5 10 16 12 13
47 8 16 16 10 21 21 18 18 12 15 19 25 24 26 21 18 15 14 15 16 16 14 16 14 12 15 16 17 18 16 15 14 23 18 16 13 9 6 3 2 2 5 7
45 11 20 19 18 23 22 21 16 19 20 21 23 20 19 16 14 13 13 18 18 20 19 15 14 15 18 20 19 18 16 16 22 22 16 15 12 12 8 4 3 1 5 6
41 12 25 25 22 20 25 19 18 17 19 22 20 15 17 16 12 10 8 11 15 16 19 20 20 19 20 22 20 17 15 20 22 19 18 14 11 9 8 6 5 6 8 9
37 17 31 34 23 23 24 22 20 20 21 19 17 16 15 16 16 16 13 9 12 19 16 18 20 19 22 22 19 19 20 25 20 20 18 13 12 9 8 9 9 9 9 8
32 19 39 37 29 25 22 22 22 19 17 14 15 19 19 18 15 11 9 9 13 20 22 19 18 18 21 22 19 21 27 23 23 22 17 15 13 10 10 11 10 11 12 12
25 22 43 41 34 27 22 23 18 15 12 11 13 16 16 14 13 8 11 15 16 14 16 18 17 20 20 22 19 24 25 23 23 22 18 13 10 9 9 10 11 8 9 10
16 32 43 41 38 30 23 20 13 10 8 5 6 13 12 7 6 8 11 14 16 15 16 13 18 23 24 21 20 26 23 26 22 18 16 12 9 9 10 9 8 6 6 7
6 43 45 38 35 27 23 15 13 11 3 5 7 8 5 4 5 7 8 8 9 13 14 16 17 20 20 23 24 24 26 25 24 18 14 14 12 12 12 10 6 7 8 9
24 45 46 38 29 22 19 16 15 8 6 4 14 12 4 1 1 4 5 3 6 8 11 15 13 21 25 24 22 17 19 18 18 17 16 17 17 15 14 13 10 9 8 11
32 40 43 32 30 24 22 18 12 6 4 3 14 11 5 2 4 5 5 6 4 4 5 7 9 12 13 18 16 16 16 16 16 17 20 19 16 16 12 13 13 12 12 10
29 38 37 32 27 21 17 16 10 7 4 5 9 9 6 2 6 6 7 4 3 6 8 8 9 13 18 13 13 14 15 15 15 15 13 14 13 12 12 12 12 11 13 14
30 34 30 27 21 18 15 15 11 11 7 5 6 11 9 3 3 7 6 5 4 3 5 9 12 16 17 16 14 14 14 14 14 14 14 12 13 13 9 10 9 10 11 13
27 27 26 23 21 18 17 14 14 12 7 6 5 12 12 6 2 3 8 6 6 6 4 5 8 13 16 18 18 16 15 15 14 14 14 14 15 15 13 13 13 13 14 15
28 26 24 22 21 19 17 16 15 12 11 9 7 9 15 13 7 3 0 3 8 8 5 4 6 7 12 14 15 15 14 15 16 17 14 12 14 14 16 16 16 17 13 13
30 28 27 25 22 19 13 15 17 14 12 11 9 7 13 16 14 10 6 4 4 7 8 7 6 6 7 9 15 19 19 18 15 12 11 11 12 13 14 13 12 10 7 6
29 32 31 27 21 22 20 17 17 15 14 14 13 11 10 14 17 14 12 11 9 9 9 10 9 8 8 9 10 10 10 9 8 9 9 10 11 12 12 13 13 15 14 16
20 27 32 31 28 26 24 23 22 18 16 15 15 15 15 14 15 16 18 18 16 13 13 14 13 12 11 10 10 10 11 12 12 12 11 12 13 14 14 16 18 19 20 21
7 15 25 31 33 32 30 28 27 24 22 21 19 17 17 15 14 16 18 18 21 23 20 18 20 19 17 15 14 13 13 12 12 13 13 13 14 15 16 18 19 19 19 19

GFSNW_500_spd_054.txt.gz
Wind_Speed
69 72 71 39 24 24 29 29 26 14 7 11 38 48 26 24 27 18 25 23 30 30 27 28 28 29 28 27 25 24 25 25 23 24 24 24 22 23 27 29 31 33 36 36
67 69 66 33 26 24 31 21 18 8 7 24 43 35 30 32 17 23 24 20 27 30 28 29 28 25 26 27 26 25 24 23 22 23 24 23 23 24 26 26 29 26 30 19
64 67 61 30 27 25 25 16 7 13 20 43 38 31 27 24 25 19 19 16 25 26 26 26 22 21 21 22 21 21 21 19 19 22 21 21 22 23 24 25 20 25 21 20
61 63 55 28 21 20 21 9 7 12 36 48 34 31 23 26 26 20 16 18 19 26 24 26 25 24 23 21 21 21 21 21 22 22 22 23 21 20 26 21 17 17 16 19
59 60 47 23 14 17 12 11 9 30 44 35 32 33 21 25 19 19 20 19 17 17 19 23 23 23 22 21 21 22 22 21 21 20 24 23 18 20 19 15 17 16 15 12
55 55 39 18 13 12 4 5 31 36 27 17 18 23 25 25 22 17 15 14 15 15 16 17 19 22 23 23 23 23 23 23 21 18 22 17 16 18 15 14 18 16 13 9
52 51 31 13 9 10 5 17 35 30 21 24 22 22 26 24 20 18 15 14 12 12 13 16 16 18 20 22 24 23 22 21 20 16 19 16 15 15 12 13 15 13 11 12
49 48 29 8 5 8 19 28 26 20 22 24 19 26 23 20 17 14 13 12 10 9 11 14 15 17 19 20 20 21 22 21 19 17 15 14 11 10 6 5 9 14 12 12
45 46 24 6 3 12 22 29 14 13 19 24 25 24 23 22 17 10 10 9 9 11 13 13 15 16 17 18 17 19 19 18 17 14 15 13 10 9 10 8 8 9 8 8
43 44 20 10 12 19 24 20 16 17 18 21 22 21 20 19 14 12 10 8 8 8 13 13 14 15 15 16 17 18 18 17 14 15 13 12 11 11 7 7 7 4 3 4
43 42 18 19 15 22 25 21 17 15 18 21 20 21 19 17 12 11 11 10 10 11 13 15 16 16 15 15 20 17 16 14 14 13 12 12 13 13 10 7 7 5 5 5
44 41 13 24 20 22 24 22 12 14 14 17 18 16 16 15 12 10 9 10 13 15 17 18 17 16 15 18 19 16 15 14 13 15 16 13 13 12 9 9 8 8 8 9
45 39 10 28 24 25 23 18 17 16 19 19 18 16 17 16 16 11 12 13 12 15 17 18 18 18 19 19 18 17 14 13 15 17 15 15 13 11 9 12 11 9 9 10
46 33 11 32 28 24 26 20 18 16 15 17 17 16 14 14 13 15 17 14 14 14 17 20 19 18 18 18 19 16 14 15 19 19 16 15 13 12 10 12 12 10 12 12
47 24 18 37 32 26 27 23 20 18 15 12 15 14 16 18 18 19 18 15 15 16 18 22 24 21 19 17 17 17 17 20 22 22 16 14 13 12 12 11 10 10 9 9
41 14 27 43 33 27 25 24 20 15 13 10 10 12 12 14 15 16 14 17 18 19 18 18 16 20 19 15 15 18 19 22 22 17 15 17 14 11 9 11 10 10 8 7
29 8 40 46 34 29 24 19 16 13 9 5 6 9 10 10 12 12 12 16 17 19 18 17 17 15 17 14 13 17 21 22 18 17 18 15 13 11 12 12 10 10 9 8
8 28 44 42 35 27 23 20 15 14 7 5 8 13 11 7 5 6 4 1 3 7 10 11 13 15 12 17 21 16 18 18 18 19 19 16 15 17 17 14 13 13 11 8
24 38 39 39 32 25 23 18 14 9 3 5 7 15 12 5 3 4 6 5 3 3 4 6 6 15 13 21 19 20 19 17 17 18 18 20 21 20 17 15 15 15 12 11
34 34 36 34 27 21 20 16 12 8 4 5 5 13 12 3 3 5 4 3 3 4 8 7 4 9 18 18 17 16 18 18 17 18 21 21 18 15 15 15 15 13 14 13
33 33 30 24 20 19 17 15 12 8 6 6 5 8 10 5 2 6 5 2 1 0 2 6 8 11 13 12 12 15 17 17 18 19 17 14 13 14 15 13 12 11 11 12
31 34 27 23 24 19 14 13 14 9 7 7 6 4 9 8 1 2 6 3 3 5 2 5 6 10 13 14 13 13 15 16 16 15 14 15 17 17 14 13 12 10 11 12
28 33 30 27 25 19 15 14 14 12 10 9 7 6 7 11 7 4 4 1 3 6 3 4 5 5 9 11 11 14 16 15 15 15 16 16 15 12 12 15 15 15 15 16
29 33 32 28 24 19 18 17 17 16 15 12 8 6 5 9 12 11 5 1 2 3 5 5 4 3 5 8 10 12 13 15 14 15 15 14 13 13 14 15 16 17 15 13
31 30 29 27 25 22 20 18 16 18 18 15 12 11 7 6 10 13 12 10 8 6 7 7 7 7 7 7 8 10 12 14 15 15 14 12 12 12 11 11 11 10 10 10
27 35 33 29 28 27 24 24 22 20 20 17 14 12 12 10 8 10 15 15 14 13 11 10 10 10 10 9 8 8 9 11 11 11 11 12 12 13 14 14 16 18 18 18
11 19 27 33 32 32 30 29 27 25 24 22 19 16 15 13 11 11 13 16 17 18 19 17 15 15 15 14 13 12 11 10 10 10 11 12 14 14 14 15 16 15 16 18

GFSNW_500_spd_060.txt.gz
Wind_Speed
46 52 51 54 57 50 42 20 30 40 42 34 25 27 30 20 30 32 30 34 31 24 24 25 29 25 27 27 26 24 22 20 20 22 20 19 18 18 16 16 17 18 19 12
39 47 47 50 53 44 35 10 35 34 32 25 25 27 27 26 35 34 33 30 31 24 22 25 32 27 25 26 24 22 21 20 19 18 16 16 15 16 15 15 15 13 16 14
40 42 43 46 48 39 25 13 33 28 24 24 26 24 23 20 20 22 32 27 25 23 20 19 27 23 22 23 22 21 21 19 19 17 16 15 15 14 14 15 12 17 13 17
39 41 40 42 43 32 16 30 32 29 24 26 26 24 22 22 21 22 24 25 22 21 18 14 25 21 21 19 20 20 19 19 18 15 14 14 13 12 13 11 16 15 18 17
36 37 37 38 36 26 8 39 27 22 24 22 24 25 18 21 20 19 20 20 20 19 19 17 21 17 19 18 18 17 17 17 15 15 15 13 11 13 14 15 17 15 16 19
35 33 33 33 27 20 10 43 24 20 23 20 22 21 21 18 17 17 18 21 18 20 20 17 19 18 19 19 19 18 16 14 13 14 12 11 10 11 12 13 15 15 14 15
31 30 30 28 16 5 31 37 25 24 25 24 24 22 20 18 16 16 17 17 17 18 16 15 18 17 16 16 16 15 14 12 12 12 10 10 9 13 12 12 13 12 11 9
28 26 27 24 5 23 35 29 27 25 21 23 24 22 20 16 11 13 13 13 13 13 12 12 12 14 16 17 16 16 16 15 13 12 11 10 12 13 10 11 8 8 7 11
24 23 24 20 3 22 24 23 28 22 20 19 24 20 17 17 15 13 12 11 12 13 14 14 15 15 14 14 15 15 15 15 15 14 13 15 14 14 10 11 6 6 6 9
24 22 22 18 7 15 31 25 29 23 20 20 23 20 16 13 13 14 12 8 5 7 9 10 12 13 13 13 14 13 13 13 13 14 14 16 13 12 12 9 7 3 1 5
24 23 22 18 8 20 33 29 25 20 21 19 18 18 16 14 12 10 9 7 6 6 7 10 11 10 9 11 10 10 11 11 13 13 14 15 13 14 13 9 7 7 5 5
25 24 24 22 13 27 36 34 25 20 22 21 22 22 18 14 13 10 7 8 6 6 6 8 10 11 11 10 11 10 11 10 11 13 16 13 13 12 12 11 11 10 6 3
26 26 26 27 20 28 39 36 31 26 23 24 25 19 16 15 16 13 10 7 7 8 8 10 12 13 13 12 11 11 13 12 12 14 15 16 16 14 14 12 11 11 8 7
30 29 28 29 23 27 43 40 31 21 18 18 18 21 18 16 15 15 14 12 11 13 13 14 16 16 15 15 13 12 16 13 16 16 17 13 17 15 15 13 10 10 9 8
30 31 31 32 20 29 43 41 31 26 19 17 17 19 17 15 15 14 16 18 19 18 18 17 16 17 16 18 14 15 17 17 17 20 15 15 16 17 15 13 9 9 7 7
27 31 33 30 15 35 39 36 33 24 19 19 19 19 18 16 16 17 18 19 20 20 21 18 16 18 17 17 18 21 18 20 20 21 16 18 18 17 16 12 8 8 7 6
29 30 31 14 25 39 34 33 27 21 20 17 17 15 14 16 16 14 13 15 18 19 19 18 19 21 22 19 18 22 18 19 22 20 18 20 19 18 16 12 9 6 7 7
25 26 12 22 36 32 32 27 22 22 20 16 12 11 12 13 12 9 11 12 13 13 17 18 22 24 20 17 16 17 20 18 21 20 21 23 20 19 17 15 11 10 9 9
18 3 26 36 32 29 30 27 24 18 15 11 8 9 10 12 13 11 12 10 11 9 9 10 14 17 20 17 19 21 21 17 18 19 23 21 20 20 17 13 11 13 14 12
9 29 33 29 28 30 27 24 21 20 12 8 4 4 9 14 13 11 10 7 8 9 10 7 8 13 16 16 17 18 18 19 18 20 21 19 22 19 16 14 15 16 15 13
25 28 27 27 28 27 26 23 20 18 10 6 3 2 6 11 10 10 7 7 6 6 9 13 14 13 11 12 13 12 16 19 19 19 18 19 18 17 16 16 15 14 14 12
27 27 26 24 24 27 25 22 19 16 12 8 3 3 2 7 9 8 7 6 3 3 6 9 13 14 12 10 10 11 14 17 18 18 17 14 16 16 15 15 13 13 13 11
32 28 26 25 23 23 22 17 14 13 12 10 7 4 4 3 7 10 9 8 5 3 7 10 9 11 10 10 10 11 13 13 16 14 12 14 14 13 14 14 14 14 13 11
35 32 30 29 26 23 18 16 16 13 12 12 10 7 6 5 4 10 9 7 5 3 4 6 7 8 11 13 16 16 12 11 12 14 15 15 14 14 15 14 12 11 15 15
35 37 36 33 29 25 20 20 16 13 12 12 12 11 9 8 7 6 10 10 8 7 4 4 4 0 5 6 8 11 15 14 13 13 14 14 14 13 12 13 12 14 16 16
35 39 36 34 33 29 25 23 22 18 16 14 11 13 12 10 9 8 8 9 11 10 8 8 6 6 6 3 3 5 7 10 12 14 14 14 13 15 15 15 16 17 16 14
29 29 33 37 40 37 33 29 25 23 22 20 17 14 13 12 11 10 10 9 9 11 13 13 13 12 11 10 9 8 6 7 10 13 14 16 18 20 20 18 17 17 18 19

GFSNW_500_spd_066.txt.gz
Wind_Speed
46 37 35 36 36 33 1 5 8 6 2 9 17 7 12 17 21 18 19 22 20 20 21 23 27 26 27 20 20 22 20 20 20 19 20 21 24 24 22 22 18 16 15 14
42 33 30 31 32 29 3 1 7 7 9 8 8 11 9 12 13 16 18 18 16 17 18 19 20 22 23 22 19 20 19 17 17 16 16 17 17 18 18 17 16 14 13 16
41 32 26 27 29 27 8 7 5 8 8 6 12 6 13 11 14 14 15 14 16 17 17 21 22 19 19 20 16 16 16 16 16 15 14 14 15 17 17 15 12 14 14 17
34 24 21 26 24 24 12 8 2 3 4 3 3 6 3 5 8 12 15 11 11 13 15 17 18 20 16 18 16 17 17 15 15 13 13 13 12 13 12 12 14 13 17 17
28 20 19 23 20 19 15 10 4 4 2 7 6 8 6 8 6 15 13 13 12 12 13 15 20 20 18 18 17 16 15 14 12 12 12 11 11 12 13 14 14 15 18 20
24 18 17 19 16 15 17 10 10 6 3 7 8 9 9 10 10 12 14 8 8 11 9 16 18 15 17 18 18 18 16 13 12 11 10 11 13 14 13 15 16 15 17 18
23 15 14 19 13 11 9 17 9 8 8 8 11 12 11 10 13 17 13 11 10 7 8 12 18 16 11 13 15 14 13 12 12 11 12 13 14 14 12 13 13 12 13 16
22 19 15 19 12 7 8 22 16 12 10 6 9 9 8 10 11 11 11 10 9 9 8 13 18 14 13 12 13 13 13 12 12 12 12 12 13 14 14 14 14 14 15 15
21 19 22 19 15 5 5 24 18 23 16 10 8 6 9 9 8 9 10 9 10 9 9 12 14 14 13 12 12 11 12 12 12 11 11 12 12 14 14 14 13 12 11 11
23 24 22 20 19 8 4 27 21 22 21 21 15 10 10 7 10 10 11 10 9 7 8 10 11 14 16 15 15 14 14 14 14 15 15 15 14 14 13 13 13 11 9 7
22 22 23 22 21 15 7 17 31 23 20 22 21 19 17 11 10 11 10 8 5 5 4 6 8 10 13 14 16 17 18 19 19 19 18 20 19 17 13 13 14 12 9 7
24 21 23 25 23 19 15 17 29 34 26 23 19 26 20 13 11 11 11 8 6 5 5 6 7 9 10 12 14 16 15 16 16 17 18 19 19 20 15 15 16 14 11 13
27 21 20 22 27 22 22 18 31 37 32 29 25 22 24 17 13 11 11 10 7 6 5 5 5 6 9 11 12 12 15 16 16 17 19 19 20 18 17 17 19 17 15 14
29 24 23 22 23 25 22 24 18 35 41 36 32 29 26 20 19 17 16 13 11 8 8 8 8 8 10 11 12 13 17 17 17 17 17 17 17 17 16 18 19 20 18 15
32 27 26 27 28 27 24 25 22 26 45 39 33 30 27 22 22 20 18 18 16 15 14 14 14 16 16 16 14 17 18 19 15 18 14 14 16 17 17 19 20 19 17 15
31 32 29 27 29 27 25 25 23 27 45 41 33 30 25 28 24 23 20 21 21 20 19 20 18 22 23 20 18 21 20 20 18 18 13 15 17 17 18 21 20 20 18 17
31 29 27 25 27 27 29 28 23 32 44 39 30 27 27 25 26 26 24 23 21 20 20 20 22 24 27 22 17 23 22 20 19 19 17 17 19 19 20 22 21 20 20 19
30 27 27 27 28 26 21 19 29 38 38 37 26 24 24 25 24 23 21 21 22 21 21 21 22 23 24 20 16 21 20 21 21 22 22 20 21 21 20 23 23 21 20 18
25 23 21 15 8 10 21 32 33 32 34 32 26 23 20 20 21 21 21 20 18 17 19 18 17 15 18 19 23 25 24 24 23 23 23 22 21 21 21 23 22 22 21 20
11 5 12 20 26 32 32 31 28 29 30 21 21 18 16 15 17 19 19 17 16 14 14 17 17 16 10 11 14 19 25 24 21 21 23 22 21 23 22 24 23 22 24 22
11 17 21 22 23 23 25 27 26 25 24 21 16 12 10 11 14 15 15 15 14 11 11 15 13 12 13 13 12 14 17 18 21 22 23 20 22 23 22 25 25 22 25 23
19 19 19 20 22 22 23 24 24 22 20 18 15 10 7 6 10 12 14 14 13 11 11 12 9 10 11 12 14 13 14 14 16 19 19 20 21 21 22 23 24 22 26 23
21 21 21 22 23 24 25 24 21 19 20 16 12 10 6 3 6 10 14 12 11 10 9 8 8 11 12 11 10 15 16 16 16 17 17 17 17 18 21 22 23 25 26 24
22 25 26 25 26 26 23 20 18 20 19 15 11 9 7 6 4 6 13 13 11 11 8 7 8 10 11 6 8 10 12 14 14 13 13 14 14 15 18 17 22 25 24 20
19 29 30 29 27 26 23 21 21 20 17 15 13 11 9 7 5 3 9 13 12 11 10 7 4 3 1 2 3 5 10 11 11 14 15 13 12 14 15 16 16 17 17 18
17 30 32 31 30 27 25 23 23 20 18 16 14 11 10 9 7 4 5 4 8 10 11 10 8 5 3 4 2 3 8 11 14 12 15 14 15 16 16 16 17 17 17 17
16 21 31 35 34 32 29 25 26 23 20 18 15 12 10 8 9 9 7 7 6 5 5 6 7 7 8 7 7 4 2 7 11 14 15 16 18 18 19 19 17 18 17 16

GFSNW_500_spd_072.txt.gz
Wind_Speed
49 43 45 32 28 29 32 13 14 15 9 13 10 18 15 13 15 15 16 16 14 14 7 11 18 22 23 21 19 17 17 17 18 19 21 19 19 18 19 22 25 23 22 23
45 42 42 29 26 27 29 10 8 12 11 12 5 8 13 11 12 11 11 16 14 13 8 9 14 17 16 17 14 15 18 19 16 17 20 20 19 16 16 17 21 19 21 23
44 38 39 28 23 25 27 11 7 8 12 4 8 6 10 11 10 11 11 9 10 10 10 11 14 15 12 10 12 15 17 20 18 14 13 16 20 17 17 16 18 21 22 25
40 35 35 27 21 23 24 9 5 6 8 4 4 10 6 5 9 11 13 10 9 7 9 12 13 14 11 8 11 15 15 15 16 14 13 13 16 16 16 17 21 25 25 25
37 32 32 27 20 19 22 10 6 7 6 5 7 5 7 5 6 10 9 9 8 7 7 10 12 11 12 9 14 13 13 11 11 10 11 11 13 16 18 19 20 22 22 22
30 28 27 25 18 17 19 14 4 7 5 6 7 9 6 7 9 10 9 9 8 8 8 10 10 10 8 14 13 12 13 13 14 13 14 13 13 15 17 19 20 19 20 17
26 27 24 22 16 15 14 13 4 7 2 7 4 3 5 8 9 10 7 4 5 6 6 9 11 11 14 14 13 13 14 14 13 12 13 15 15 16 17 18 19 19 18 17
25 26 24 17 16 16 11 11 8 8 6 3 1 3 2 8 12 12 9 4 4 4 5 6 12 14 14 14 14 15 14 12 13 14 13 12 13 13 14 15 16 16 16 15
26 24 26 23 15 17 11 11 8 14 11 10 5 2 1 5 9 11 10 9 7 7 5 9 16 14 12 14 14 15 15 14 14 14 14 13 13 13 13 13 14 14 14 15
28 25 26 24 15 19 17 12 13 19 19 16 11 7 2 2 4 8 8 8 8 7 5 9 18 16 13 13 14 14 14 14 13 13 13 12 13 11 10 12 12 12 11 10
29 27 25 22 17 20 24 20 15 17 25 28 21 18 12 7 4 4 7 8 9 7 7 8 15 16 15 14 13 14 14 14 14 14 14 12 11 10 9 10 10 11 11 12
27 27 24 22 21 22 22 25 23 19 21 29 27 23 21 16 10 7 7 9 7 6 6 7 10 12 15 17 16 16 15 16 17 16 17 16 15 14 14 13 12 12 13 14
30 26 25 26 23 26 23 21 29 24 23 27 29 27 23 21 19 12 11 11 9 7 6 7 9 10 13 14 14 15 15 16 17 19 19 18 18 17 16 15 15 14 14 16
27 29 27 25 26 27 25 22 30 30 27 30 31 31 24 20 22 19 14 13 12 10 7 7 7 6 7 8 9 10 12 13 16 18 18 18 18 18 17 17 18 18 17 18
29 33 28 31 32 29 24 25 26 32 31 28 33 34 33 23 19 20 18 15 14 12 10 8 8 7 6 5 5 8 7 10 13 17 16 17 18 17 18 18 20 20 20 20
26 29 31 32 32 30 24 25 25 23 31 29 29 33 34 31 25 17 16 18 17 13 14 15 12 13 12 10 9 15 14 15 15 16 17 17 18 17 18 18 19 21 22 23
24 29 31 34 32 26 25 23 25 23 24 31 30 33 35 35 29 23 18 19 18 17 15 13 14 18 18 16 13 20 23 21 19 20 20 18 21 19 18 19 20 21 22 23
24 27 32 34 27 24 22 20 21 23 25 27 30 30 34 38 30 23 19 21 16 14 18 18 21 22 22 16 19 25 24 24 22 21 22 22 21 22 19 18 20 21 22 23
22 28 31 27 24 22 17 16 18 25 29 31 29 33 30 33 30 23 21 17 17 19 20 21 23 23 22 24 22 22 22 22 22 21 20 22 22 23 21 20 20 22 24 24
20 25 18 16 11 8 6 1 8 17 25 25 23 20 26 27 24 22 21 19 22 23 20 21 24 25 24 23 22 21 23 22 24 24 24 22 22 23 23 22 22 23 24 24
17 18 2 11 10 10 11 13 15 15 18 19 21 25 25 24 17 15 17 19 21 21 21 26 22 18 21 20 21 23 24 22 19 22 25 27 27 25 22 21 21 23 25 25
17 18 11 1 1 4 3 6 9 12 16 19 21 21 19 13 14 15 17 19 21 21 20 19 17 15 16 17 18 19 21 24 22 20 21 22 25 25 24 22 21 22 25 26
19 15 13 12 8 4 4 6 5 6 18 17 16 15 13 15 13 12 15 18 16 16 14 12 8 8 11 14 16 18 19 19 20 19 17 15 16 18 21 22 21 22 24 25
17 17 8 16 17 12 7 11 8 7 12 17 17 19 16 15 12 10 9 10 12 10 7 4 5 6 3 5 6 8 9 15 16 15 18 18 18 18 19 20 20 20 22 22
21 19 13 12 22 19 15 11 12 11 10 15 17 18 18 16 13 10 9 9 9 9 6 4 6 4 2 1 3 5 2 7 9 8 9 11 12 13 14 15 16 17 18 19
28 25 21 17 16 26 22 16 12 14 15 19 21 19 19 15 15 13 10 8 7 9 11 6 8 8 6 5 3 2 1 1 3 5 7 11 12 12 13 14 14 15 15 15
23 25 25 21 19 21 29 25 20 18 19 20 24 23 21 16 16 14 13 10 9 9 13 11 10 10 9 6 4 3 4 7 8 9 10 9 13 16 16 15 14 14 14 17

GFSNW_500_spd_075.txt.gz
Wind_Speed
67 62 43 38 37 26 27 13 8 12 9 5 11 14 8 8 6 5 5 4 10 18 15 17 20 17 16 16 14 14 10 13 20 20 22 24 27 23 23 30 37 31 25 23
69 63 41 36 35 26 25 14 4 6 10 4 5 10 6 5 1 5 2 3 3 6 11 13 15 17 13 13 15 9 6 10 14 18 20 20 19 17 19 20 22 23 24 24
72 62 37 33 32 25 21 15 5 4 8 2 2 1 7 4 6 4 4 5 3 2 8 12 13 13 12 11 11 11 11 13 13 15 14 15 16 14 16 18 22 24 26 21
70 61 36 28 28 23 21 16 4 2 5 4 4 4 1 2 5 8 6 6 2 0 2 7 12 11 10 6 11 11 11 15 15 14 14 14 15 17 13 16 19 24 24 25
67 60 36 26 27 20 19 14 6 3 5 5 9 6 4 3 6 6 7 8 6 3 3 6 11 11 8 5 8 11 11 13 14 13 13 14 13 16 18 18 19 19 22 25
62 57 32 24 28 18 17 14 6 5 3 6 11 11 8 6 9 9 9 8 8 7 7 7 7 8 8 7 11 13 12 12 12 10 10 10 12 15 18 22 24 22 21 20
59 49 29 23 26 20 16 14 9 8 5 3 8 11 10 10 11 10 9 7 7 7 7 9 10 10 8 9 12 11 13 14 15 14 15 14 13 16 18 20 19 19 17 17
56 45 24 21 28 21 20 13 12 14 9 8 4 5 8 11 14 14 9 6 6 5 4 7 11 12 11 13 12 12 13 13 12 11 10 10 11 12 14 15 15 16 16 17
53 41 24 23 27 19 22 18 13 14 15 14 11 6 2 5 11 15 14 9 6 8 5 7 9 12 14 14 13 12 13 12 12 12 12 12 12 14 15 16 16 17 17 17
51 33 26 25 25 24 21 21 19 14 22 20 16 11 7 5 7 9 12 12 10 9 8 8 12 15 12 11 13 13 14 14 13 13 14 13 12 12 12 14 14 15 16 16
45 35 28 29 26 23 21 24 22 22 16 28 23 18 11 9 9 8 9 10 10 9 9 7 13 17 14 11 12 14 15 15 15 14 14 12 12 12 12 11 13 13 14 14
40 38 34 30 27 24 22 25 25 23 24 20 33 27 21 17 12 8 7 10 12 11 9 9 11 17 17 16 13 12 12 13 14 13 13 12 11 12 12 11 10 13 13 13
32 28 24 25 28 28 22 26 27 25 24 28 22 37 31 23 21 13 11 11 12 9 9 8 10 11 15 16 17 16 16 16 17 17 17 17 17 16 16 15 14 14 13 13
34 28 27 30 34 32 28 30 29 26 24 29 25 28 37 30 25 21 17 13 14 11 10 9 9 9 10 12 13 14 15 17 18 20 20 20 20 20 19 19 18 17 17 17
34 29 30 27 28 32 31 31 30 27 23 27 31 24 33 30 28 26 22 18 16 16 13 11 10 8 8 7 7 9 9 12 14 16 17 18 18 19 19 19 19 19 19 20
37 32 30 29 33 33 33 30 31 23 22 24 30 29 27 35 28 24 25 24 20 18 17 15 12 11 10 8 7 11 11 12 13 15 15 15 16 19 20 19 19 20 20 21
27 25 25 28 32 33 29 24 21 21 20 23 28 29 26 31 36 26 23 26 22 20 20 16 16 15 12 10 10 19 18 17 17 18 19 19 19 19 21 21 19 19 21 21
27 26 29 33 32 30 27 21 18 19 22 23 26 29 26 25 31 33 28 22 19 21 21 19 18 16 13 10 17 21 22 22 22 21 21 22 22 22 21 23 20 19 20 21
26 27 28 31 22 24 21 15 12 15 20 23 23 25 22 24 29 31 30 25 21 19 18 18 21 19 18 18 22 24 26 25 24 22 22 22 22 22 23 23 22 20 20 21
21 24 22 13 17 20 24 18 5 7 15 20 22 22 19 23 29 30 27 23 22 22 21 21 20 20 24 25 27 27 28 26 25 23 22 23 24 22 21 24 22 21 22 22
19 19 18 14 13 13 16 13 16 8 11 13 15 14 16 20 26 29 25 21 22 22 23 23 23 20 23 25 28 27 27 26 25 25 24 23 25 26 23 21 22 22 23 24
21 21 20 14 11 7 8 8 11 11 11 9 15 18 16 17 18 18 18 19 21 21 22 24 20 22 26 26 24 22 22 23 23 22 23 22 21 23 25 25 24 23 23 24
22 26 23 16 14 10 2 3 3 0 0 9 15 15 18 21 20 16 16 16 17 19 19 20 21 19 20 18 18 19 21 21 22 20 20 20 18 17 19 22 24 25 24 23
23 22 19 17 14 17 13 9 7 2 2 14 18 18 18 17 19 16 15 14 16 18 17 15 9 11 11 9 7 9 11 11 12 16 15 16 15 14 16 18 20 23 24 24
25 23 20 18 16 15 20 16 9 8 6 11 14 19 19 18 16 14 12 10 10 10 10 5 5 9 6 4 3 4 4 4 8 10 12 13 16 19 19 18 16 17 19 20
24 27 24 24 22 18 23 21 14 11 13 11 10 17 20 20 20 17 14 11 8 6 9 8 9 12 9 6 5 6 5 5 6 6 8 12 11 12 13 13 13 14 15 16
22 22 29 31 27 26 19 26 20 17 14 15 16 18 18 19 18 20 17 15 11 11 13 6 11 12 9 10 9 6 6 7 9 10 11 10 8 10 13 13 14 14 15 15

GFSNW_500_spd_078.txt.gz
Wind_Speed
69 73 74 70 60 40 36 22 15 11 9 5 5 10 5 5 8 7 10 15 20 14 15 12 10 7 14 15 13 8 14 26 34 32 31 30 32 34 29 27 30 36 26 32
68 74 73 68 62 35 34 21 15 9 9 5 3 6 4 4 5 5 4 8 14 11 11 11 10 11 10 8 5 9 15 19 19 21 29 36 35 35 23 27 28 26 30 27
69 73 72 65 59 36 32 20 15 9 8 5 5 4 4 1 1 3 2 3 8 8 5 9 9 7 7 5 2 3 6 10 13 17 19 22 20 20 21 20 28 23 27 28
70 70 72 63 59 36 31 22 14 12 9 6 9 8 5 2 2 3 3 4 1 3 4 5 7 6 5 3 6 6 7 10 11 10 13 16 15 15 16 19 22 22 19 21
70 68 69 61 57 33 29 24 16 12 12 9 8 11 6 5 5 5 6 5 5 2 3 7 8 7 5 3 4 6 8 11 13 13 13 13 13 14 14 15 16 17 19 20
69 68 69 61 51 31 27 26 17 14 11 10 11 13 11 7 8 7 6 6 6 5 4 6 9 11 6 5 5 8 8 10 12 12 13 14 14 16 18 20 21 20 16 16
72 69 65 61 50 27 27 24 18 16 15 11 8 11 13 12 9 10 7 7 7 6 5 6 9 10 8 7 8 9 9 10 12 14 15 15 14 15 16 18 18 18 18 13
70 63 62 58 41 25 29 21 20 18 16 16 10 8 12 13 14 13 11 8 7 7 6 7 9 9 9 7 11 10 10 11 12 11 11 12 12 11 12 12 13 13 13 14
67 57 58 54 33 23 26 22 19 19 16 20 16 12 9 11 14 16 16 13 9 9 7 7 7 10 10 11 11 10 10 11 11 10 10 9 9 9 10 9 12 12 12 13
67 63 59 50 31 24 26 23 18 20 18 19 22 18 14 10 6 11 16 16 13 10 9 8 8 9 9 9 11 11 12 13 11 11 11 10 10 10 11 11 12 15 14 13
52 52 57 48 28 22 24 23 20 22 19 19 24 23 19 15 12 9 10 11 12 11 10 9 9 11 12 8 10 12 13 14 12 11 9 9 9 8 8 10 11 12 13 14
56 56 54 39 27 26 23 25 22 23 24 20 22 28 25 19 17 15 14 13 13 11 10 10 7 11 14 12 8 8 9 11 12 10 10 9 9 10 9 9 9 10 12 12
60 59 48 35 29 31 29 31 29 23 27 23 21 25 33 28 21 17 13 13 14 14 12 10 8 9 13 14 12 11 9 9 10 9 10 10 10 10 11 10 10 11 10 13
63 69 60 39 30 30 29 28 27 27 26 25 26 24 28 38 29 23 19 13 14 15 12 10 9 8 10 12 14 14 15 15 15 15 14 15 15 15 16 16 15 15 15 15
62 66 64 41 33 28 30 34 32 29 26 24 20 24 28 31 38 29 26 20 16 16 14 11 9 9 9 10 11 11 12 13 15 13 16 16 16 19 18 18 18 18 18 18
65 68 66 34 33 32 38 33 29 27 24 19 19 22 27 24 35 36 29 25 21 19 18 16 11 11 11 10 8 10 10 10 10 10 12 12 13 16 18 19 20 19 20 20
66 68 66 32 31 35 33 30 23 18 14 11 16 21 24 23 28 35 30 26 26 24 21 20 16 14 14 12 9 14 12 11 11 12 13 14 16 16 17 19 20 21 20 21
66 66 67 28 28 26 28 30 25 15 11 13 16 17 22 23 24 33 29 25 25 27 24 22 21 18 17 13 14 17 13 14 16 18 20 19 20 20 21 22 22 22 22 21
63 67 62 23 24 23 27 27 25 13 10 12 15 16 22 25 23 35 32 27 23 25 24 22 22 20 17 18 19 17 17 18 20 21 22 22 22 22 23 23 24 24 23 22
64 64 59 18 18 22 22 23 22 13 2 8 13 13 21 21 23 29 37 32 27 23 18 22 23 16 19 22 24 23 23 24 25 26 26 25 23 22 22 22 22 24 25 23
64 62 49 18 16 16 14 14 19 16 13 16 8 11 9 15 23 28 31 33 30 25 20 22 21 18 22 23 26 28 28 28 30 29 26 25 24 24 24 24 22 21 24 25
60 60 48 16 15 15 11 8 8 9 10 6 10 8 8 6 19 25 19 25 26 23 20 22 20 24 25 26 26 27 28 28 27 26 24 24 23 22 21 21 24 25 23 24
58 59 44 16 16 17 11 7 7 9 8 3 10 12 10 10 15 24 18 19 17 16 19 19 19 24 25 25 27 26 24 21 21 21 22 21 21 22 22 20 21 24 26 27
61 55 37 18 16 17 13 15 12 7 6 3 8 11 16 14 16 15 16 14 14 15 14 15 17 17 19 15 13 10 9 12 14 15 15 17 17 18 19 19 17 17 19 22
61 49 27 20 21 21 17 18 18 11 5 5 6 9 13 16 19 18 15 14 12 10 10 9 9 10 9 6 5 5 5 4 2 3 6 9 13 15 18 18 18 18 19 21
51 35 24 26 24 23 23 19 22 16 7 8 8 9 13 14 18 17 15 14 10 7 8 7 7 10 10 6 6 7 8 7 7 8 8 9 8 12 13 14 15 14 14 14
39 26 23 22 25 26 25 23 21 22 15 9 13 12 12 16 17 17 17 15 13 12 10 8 10 14 12 9 9 9 7 5 7 8 10 12 14 13 9 10 13 12 12 13

GFSNW_500_spd_081.txt.gz
Wind_Speed
60 69 73 75 75 71 53 33 24 17 16 13 11 8 7 8 8 8 11 16 12 12 16 16 17 18 15 12 13 16 19 24 42 42 36 37 32 36 36 35 32 30 26 33
64 67 73 75 77 72 56 32 24 16 14 12 10 8 5 7 3 4 5 11 12 7 11 11 12 12 14 16 21 17 22 33 41 29 30 36 30 29 32 33 29 26 26 31
64 66 72 75 78 75 61 33 24 16 13 12 10 10 10 6 4 2 2 3 8 8 4 4 6 6 7 10 15 18 19 27 31 30 25 25 26 30 31 29 28 32 29 26
64 67 70 73 77 75 57 37 25 15 14 13 12 13 11 8 7 4 5 2 3 4 4 5 4 5 6 6 8 11 13 16 18 22 27 29 29 29 28 30 27 26 24 24
64 67 69 76 81 74 57 41 26 16 13 15 15 14 13 10 7 6 5 5 3 0 2 5 6 6 5 6 6 7 7 10 14 18 20 21 22 23 22 24 26 23 22 21
66 66 69 76 82 76 64 36 27 16 13 13 13 15 15 13 9 9 6 6 6 5 4 6 10 7 1 2 2 5 9 11 11 12 16 17 18 18 18 17 17 19 16 14
67 68 71 76 79 74 65 32 24 13 12 12 14 14 12 15 12 9 9 7 7 7 6 6 8 9 6 5 4 7 7 11 14 14 13 14 14 15 16 17 18 18 14 14
67 71 73 77 77 70 52 28 23 15 13 12 15 14 12 13 13 12 11 9 7 7 7 7 9 9 8 7 8 10 10 10 11 12 12 13 13 13 13 15 15 15 12 16
66 69 73 75 78 67 53 32 24 16 13 9 12 16 13 12 14 13 14 13 9 7 8 7 7 10 9 9 9 10 9 10 11 11 10 11 12 11 11 12 12 11 12 17
59 64 71 77 75 70 55 32 23 17 16 13 10 17 18 14 11 12 15 16 15 11 10 8 8 8 10 10 12 11 11 10 10 10 9 11 11 10 10 9 9 10 11 10
55 60 67 73 74 67 49 30 21 20 15 22 14 15 21 20 17 11 9 11 14 13 11 11 9 10 12 11 11 11 12 13 11 8 8 10 10 10 10 9 9 11 12 13
56 61 56 70 69 66 45 30 27 24 21 21 21 16 22 26 22 19 13 13 11 12 11 11 9 9 13 12 9 11 11 10 10 9 10 10 10 8 8 8 8 9 11 13
52 57 54 62 69 66 52 30 26 26 20 20 25 19 20 30 27 24 20 18 19 15 13 12 10 8 10 13 12 9 10 11 12 12 11 10 9 8 8 8 8 8 8 10
54 56 59 58 64 66 50 32 33 28 21 18 23 20 21 27 31 25 24 21 18 17 15 13 11 9 10 13 14 14 13 11 10 10 10 9 11 11 11 12 12 12 11 11
56 58 59 64 64 61 33 33 33 33 26 18 16 17 20 29 35 31 27 22 18 18 16 14 11 9 10 11 12 13 13 14 12 12 13 12 15 14 14 15 15 15 16 16
47 58 67 70 68 60 32 29 32 31 22 14 13 15 17 26 32 39 32 27 21 17 18 16 12 9 10 10 12 12 11 10 10 11 9 8 11 15 15 16 17 17 18 18
53 57 62 72 73 52 30 33 32 32 21 10 11 13 17 24 29 30 39 33 27 22 19 17 15 13 12 12 13 11 11 10 9 8 9 9 9 12 15 17 17 18 19 21
50 60 65 68 75 44 25 31 35 32 16 5 5 6 12 19 27 23 32 36 32 27 24 20 19 17 15 13 18 16 13 11 11 11 13 15 16 17 18 19 21 21 21 21
50 56 63 67 72 40 21 24 28 22 11 1 5 9 10 14 23 23 29 33 31 28 26 24 23 21 18 19 20 19 16 13 13 14 14 16 18 19 21 22 23 23 24 24
48 55 62 67 68 26 13 15 18 18 20 14 8 7 7 13 16 17 28 28 27 25 21 24 24 20 20 21 22 20 20 21 20 21 21 21 22 23 23 24 23 23 24 24
49 55 62 66 60 25 10 13 12 3 12 12 6 10 1 12 16 14 19 30 29 25 21 23 20 19 26 27 26 26 26 27 28 28 28 28 27 27 25 25 25 25 25 24
51 54 57 64 57 41 16 15 7 4 6 7 5 13 7 7 18 15 12 21 32 32 25 24 18 18 22 25 26 25 26 26 27 28 29 30 29 26 24 25 26 25 25 27
51 53 56 63 58 49 22 22 16 10 7 6 5 11 11 8 14 18 10 11 18 19 26 22 19 23 25 26 27 28 30 31 31 31 29 27 25 23 24 24 24 23 22 25
51 53 57 58 59 49 25 24 23 16 11 6 3 8 12 8 11 21 21 14 11 13 14 16 20 21 22 22 20 20 17 15 18 20 21 21 20 20 21 21 21 22 21 21
53 55 58 55 59 48 26 27 28 21 16 8 5 9 8 11 11 12 10 17 15 10 10 11 11 14 14 11 9 7 6 5 4 1 2 5 6 9 13 15 17 18 18 18
52 54 56 55 56 36 26 29 25 24 21 12 10 8 11 13 15 16 16 15 14 11 7 5 7 9 11 10 9 6 5 5 4 4 4 4 5 4 6 10 12 15 17 17
53 54 56 55 44 26 24 28 25 24 23 20 13 12 10 12 14 16 16 15 15 14 11 7 7 9 14 14 11 8 7 7 5 2 5 6 7 9 10 9 8 10 13 13

GFSNW_500_spd_084.txt.gz
Wind_Speed
58 60 64 70 69 77 87 86 55 35 18 15 15 13 8 9 4 3 8 12 8 10 13 13 12 17 17 13 7 19 17 16 33 44 39 47 45 26 39 32 29 27 24 25
57 58 61 67 67 77 85 87 71 33 17 14 14 12 10 10 5 0 1 7 6 4 5 9 12 17 20 13 5 10 17 23 30 37 37 38 36 32 36 35 33 31 26 30
56 57 62 67 67 73 83 85 63 36 17 12 15 13 12 11 6 5 4 3 5 4 3 2 7 12 15 16 11 5 14 21 29 32 25 23 33 23 33 36 37 34 33 29
56 59 63 66 68 73 82 87 72 45 19 12 14 13 13 10 9 5 6 6 2 1 1 2 4 8 11 13 17 12 14 17 31 34 19 23 24 22 21 25 34 33 29 28
55 59 61 63 69 74 80 85 74 43 19 12 14 14 13 11 9 6 7 9 7 3 2 2 1 4 9 8 10 16 19 20 27 24 22 24 25 27 28 30 32 33 29 25
55 58 62 62 68 74 78 84 74 44 21 12 12 14 12 12 12 7 7 8 10 7 4 5 6 3 2 4 7 10 10 15 21 20 21 23 25 24 23 24 26 28 25 22
54 57 61 63 67 75 80 85 76 48 23 13 12 14 13 12 13 10 9 8 8 8 7 7 8 10 5 3 3 8 9 11 12 14 18 20 20 22 23 23 24 22 21 18
53 57 61 62 65 73 79 83 77 47 18 14 12 13 14 11 11 12 10 9 9 8 9 8 8 10 9 6 5 7 8 9 11 13 14 16 17 18 19 20 20 18 18 17
49 54 58 62 67 73 78 81 77 48 20 10 11 12 16 12 11 13 13 12 11 9 9 8 7 10 11 9 6 9 9 10 10 12 12 12 13 14 15 16 16 15 15 19
43 47 53 63 66 71 78 80 75 45 28 15 13 12 15 17 12 11 16 14 14 12 10 9 8 9 11 11 9 11 11 11 12 12 12 11 11 11 11 12 12 11 13 14
36 43 53 59 63 67 76 77 67 47 31 22 14 17 16 19 18 15 15 14 15 15 12 11 10 9 10 11 10 12 12 12 13 13 12 13 13 12 13 11 11 11 13 13
33 42 49 51 58 65 71 75 69 42 29 29 19 19 21 22 24 21 16 13 15 16 15 13 12 10 12 12 12 13 13 13 14 14 14 13 13 12 12 12 12 12 12 13
34 40 48 50 54 64 68 74 69 50 33 30 23 19 22 25 27 26 23 18 17 15 16 13 12 11 11 15 14 13 15 15 16 15 13 13 13 13 13 13 13 12 10 11
34 41 42 46 55 60 63 71 70 57 39 27 25 19 18 25 27 30 27 24 20 19 17 15 13 12 12 15 17 15 13 14 14 14 13 13 13 13 12 11 10 9 10 10
33 37 41 48 56 57 65 65 60 53 38 29 23 14 15 22 28 32 30 28 24 20 19 17 14 12 11 13 16 18 17 15 14 14 14 13 13 13 14 15 15 16 16 16
31 35 39 47 53 59 61 58 52 45 35 22 17 12 11 19 29 32 32 29 25 20 18 18 15 12 11 12 13 14 15 15 16 16 15 15 15 15 15 16 17 17 18 19
29 37 40 43 53 62 60 57 56 42 32 19 14 9 10 18 26 31 33 30 26 21 18 18 18 15 11 11 13 12 14 14 13 12 11 12 11 11 11 13 14 15 16 18
30 35 38 42 48 60 65 61 51 43 31 13 7 5 1 11 18 27 31 34 30 27 22 18 18 18 13 14 15 15 14 13 13 13 12 12 13 15 15 16 17 18 19 19
28 31 35 41 47 52 59 62 46 36 21 8 5 5 6 7 11 22 21 31 37 33 26 24 22 17 14 18 18 18 17 16 16 15 13 12 13 14 16 18 20 21 22 22
28 34 36 38 41 48 51 59 39 25 13 8 2 5 6 7 10 16 18 20 33 37 32 29 24 20 20 22 20 20 21 21 20 19 18 17 18 20 21 22 22 23 25 24
31 33 36 37 39 45 50 53 50 26 12 10 12 11 5 8 9 7 8 11 25 28 26 27 22 18 26 23 22 22 21 21 23 25 26 28 29 27 27 27 28 27 26 26
33 35 40 38 38 43 51 55 55 31 20 17 17 14 11 7 14 12 9 12 20 26 24 25 19 21 23 24 25 26 27 29 30 30 29 29 28 29 30 32 31 29 26 25
36 37 40 39 40 42 48 54 56 41 25 21 16 15 15 11 15 15 6 8 13 15 22 27 21 21 23 24 24 25 26 28 30 33 34 34 35 33 32 31 29 27 26 26
36 40 41 40 40 43 46 55 54 37 24 21 16 15 13 15 13 20 21 17 12 11 11 14 22 25 24 24 23 21 22 19 17 20 21 22 22 24 25 25 25 24 24 24
39 43 44 41 41 44 47 55 54 32 23 23 20 16 14 13 14 12 18 21 16 9 9 13 15 18 20 21 19 15 11 9 7 3 2 3 5 7 10 13 15 17 18 20
40 43 44 43 44 49 53 60 50 32 22 25 23 20 14 15 17 16 15 18 15 18 15 13 10 11 13 12 14 11 9 8 6 4 3 2 2 1 2 5 8 12 14 15
43 44 43 44 46 51 58 57 40 26 22 24 26 24 16 11 17 17 17 19 18 17 18 15 9 9 10 15 16 12 10 8 7 8 1 3 4 6 5 5 6 6 9 12

GFSNW_500_spd_090.txt.gz
Wind_Speed
43 48 52 56 56 58 65 69 74 80 83 77 45 16 11 8 7 10 10 11 13 12 14 16 21 22 15 17 18 10 26 36 33 36 59 47 40 36 34 32 33 31 30 28
43 47 52 56 55 57 64 67 73 78 81 77 51 23 10 8 7 9 9 10 11 11 9 10 11 16 16 16 13 20 9 28 32 34 57 59 54 44 41 37 33 31 28 27
43 46 51 57 58 57 62 65 69 75 80 78 56 25 11 9 8 7 8 10 11 10 8 9 11 11 11 14 11 10 13 8 26 29 33 47 51 49 41 36 34 30 26 27
42 45 50 56 58 57 60 63 68 74 79 79 62 28 11 10 8 7 8 9 9 11 7 7 8 8 6 6 12 6 9 9 18 28 32 41 46 45 38 38 33 27 26 22
41 44 48 56 56 56 57 62 66 71 78 79 64 30 13 11 10 8 8 8 8 10 8 5 5 8 8 7 13 9 13 6 9 20 26 38 47 52 42 32 30 29 30 20
40 42 48 53 56 54 56 61 64 69 74 77 66 35 16 11 10 9 9 7 9 8 8 6 3 5 9 8 8 3 7 9 16 14 22 21 35 51 53 41 32 35 31 25
40 41 47 51 53 51 54 58 61 66 71 73 66 41 19 11 11 10 11 9 7 8 8 8 5 3 3 5 6 6 6 7 16 17 13 12 22 31 38 41 31 33 33 32
41 42 46 49 52 50 49 56 59 65 69 71 65 44 23 12 11 11 11 12 8 7 7 7 6 4 2 1 2 4 7 11 16 18 11 8 17 33 28 28 23 26 26 24
42 42 45 49 50 48 46 52 57 62 65 66 62 45 26 12 10 13 11 13 11 9 8 5 6 4 4 3 3 3 2 8 12 15 16 14 18 22 23 29 26 26 24 24
45 44 45 48 49 45 44 48 54 60 61 63 59 45 33 17 11 13 11 15 12 10 9 6 6 4 5 6 5 4 7 7 7 9 9 12 13 15 19 22 23 23 22 22
47 45 45 47 47 45 44 45 50 56 58 60 55 45 34 20 10 13 15 15 13 11 10 8 7 6 5 7 8 7 8 9 10 10 10 10 9 10 11 12 13 13 14 16
46 45 44 45 42 42 41 42 46 52 55 58 54 44 34 22 12 14 17 16 16 13 11 11 9 8 7 7 9 9 9 10 10 11 11 10 10 11 12 11 13 13 14 15
45 43 42 39 37 39 39 39 44 50 53 56 53 44 37 28 16 12 18 17 14 16 15 14 12 10 9 9 9 9 10 11 11 11 11 12 12 13 13 12 13 14 15 16
44 43 37 32 33 35 37 38 42 47 50 54 52 41 34 26 17 7 16 20 15 13 13 14 14 13 11 10 9 11 10 11 13 13 14 13 13 12 12 13 13 13 14 14
44 37 30 26 29 32 34 36 40 44 48 53 54 43 33 24 15 7 13 19 21 15 13 13 14 14 12 12 11 10 13 11 12 14 14 15 14 14 15 16 16 16 15 14
42 33 27 20 25 27 30 30 36 41 46 52 53 47 29 24 16 8 8 17 23 22 18 15 15 17 15 12 12 12 12 15 14 14 14 15 16 16 16 15 15 15 16 18
39 30 22 17 20 24 26 28 32 38 45 48 51 49 36 22 20 13 9 13 22 25 23 20 18 17 16 14 15 11 11 13 16 18 18 17 18 18 18 17 17 18 19 20
36 26 19 16 17 20 19 22 27 35 42 47 49 48 37 28 18 16 13 11 16 24 27 25 22 20 16 15 17 12 12 12 13 14 17 17 17 17 17 17 16 17 17 17
33 24 18 15 15 17 17 21 24 29 38 41 46 49 41 34 19 18 16 15 15 20 24 27 25 21 16 19 18 15 13 12 12 11 11 12 13 15 17 17 18 18 18 18
28 24 18 14 17 17 18 21 24 28 34 38 42 45 44 41 26 19 17 17 17 15 19 27 26 20 18 18 17 17 16 15 14 15 17 18 18 20 22 22 20 19 20 20
27 27 19 16 18 20 20 22 26 29 32 36 37 42 45 40 26 19 17 16 14 12 15 23 28 23 23 23 20 18 17 16 16 17 19 21 22 23 23 25 26 26 26 28
29 27 20 18 20 22 22 23 26 29 33 34 34 39 42 46 28 17 16 14 13 14 14 14 14 22 30 29 26 23 22 22 23 22 23 25 27 28 30 32 33 34 35 35
30 28 22 21 24 24 23 25 27 31 32 31 33 38 40 49 31 17 16 16 17 17 14 11 10 15 24 31 33 31 28 26 23 22 22 24 27 31 35 37 39 40 41 41
32 27 25 26 27 25 26 28 30 32 33 32 35 39 43 47 30 19 17 16 16 19 14 11 11 13 17 24 26 25 24 22 22 22 23 24 23 23 26 28 29 32 33 35
29 28 29 28 29 27 29 29 31 34 33 29 34 39 43 46 33 17 18 17 20 19 22 21 18 13 15 20 23 25 24 22 21 20 19 19 20 19 14 13 13 14 16 19
28 30 28 30 29 29 30 31 33 35 34 34 37 40 44 47 38 19 17 14 23 23 18 18 20 21 14 11 14 17 19 20 19 16 16 15 14 15 11 7 9 10 9 10
28 28 31 31 31 31 32 33 34 36 36 36 38 42 40 48 39 23 24 23 26 25 24 21 20 18 18 15 16 17 17 16 15 17 14 11 11 5 2 5 6 7 8 9

GFSNW_500_spd_093.txt.gz
Wind_Speed
28 32 35 39 45 51 55 59 62 67 72 77 81 75 47 14 9 8 11 11 12 15 13 14 18 21 22 21 25 6 16 31 26 29 49 47 42 39 29 29 25 21 17 26
26 31 34 37 43 48 52 57 60 65 68 73 78 76 45 19 10 7 10 11 9 12 13 14 12 15 18 21 22 14 13 24 20 25 48 45 35 32 32 31 26 21 17 16
26 31 33 36 42 47 51 55 58 62 66 72 75 76 50 23 10 8 10 9 9 9 11 9 11 12 14 18 15 21 11 17 19 23 43 44 43 37 39 36 28 20 21 22
25 31 33 36 39 46 50 53 55 59 63 68 72 74 61 29 10 7 8 9 9 7 10 7 10 12 12 14 8 10 16 12 22 22 29 41 44 39 35 31 23 19 23 21
26 30 33 37 39 44 49 51 52 57 60 65 70 73 61 35 11 7 7 7 9 7 8 8 6 10 11 8 8 4 11 13 16 18 17 39 43 37 35 32 26 24 25 23
26 30 33 36 38 43 47 49 50 53 57 62 67 69 60 38 14 6 8 6 7 6 8 7 7 6 11 7 9 7 7 10 17 14 19 19 41 47 46 37 34 29 28 17
26 28 31 35 37 42 46 49 49 50 55 60 63 66 60 39 20 6 7 7 7 7 6 7 6 5 6 9 6 4 5 4 12 16 15 15 25 29 42 43 35 36 24 16
25 28 30 36 37 41 46 48 45 48 52 56 60 62 58 44 24 8 8 8 8 7 5 6 5 5 3 5 7 8 7 7 12 17 18 16 20 33 37 38 37 26 24 21
26 28 30 34 38 41 43 46 43 45 48 53 57 56 54 43 28 11 9 8 9 7 6 5 5 3 2 0 3 5 8 9 12 11 9 7 7 17 30 42 48 44 38 30
27 30 31 34 37 39 42 44 40 41 45 49 54 54 53 44 29 19 9 9 10 7 7 7 4 3 2 3 2 1 2 6 8 11 9 7 8 12 23 20 23 28 27 26
30 31 31 34 36 39 41 42 38 38 42 46 51 51 52 43 31 21 8 11 11 9 7 7 5 4 3 4 5 5 5 6 5 7 9 10 11 14 19 20 23 26 29 26
32 32 32 34 36 39 39 38 35 35 39 44 47 50 50 42 30 21 11 12 11 13 9 8 7 5 5 5 6 7 7 9 8 9 9 9 10 12 12 13 16 20 22 19
33 34 35 37 36 38 36 36 33 33 37 41 46 49 49 43 30 22 9 10 11 13 13 10 8 8 7 7 7 9 9 9 10 9 10 12 12 13 14 15 14 14 16 17
37 38 39 41 37 36 34 33 30 32 35 39 44 47 48 44 33 21 10 7 12 10 12 13 11 11 10 9 9 9 10 10 11 11 11 11 11 11 11 13 13 13 14 15
42 42 43 42 39 32 30 30 28 30 33 37 42 45 48 49 38 24 12 7 12 14 12 11 11 11 11 12 11 10 11 12 11 12 12 13 12 12 11 11 12 13 13 14
48 47 47 43 36 29 26 25 25 27 31 34 39 43 46 48 45 30 17 12 14 16 19 16 12 12 12 12 12 12 11 12 14 12 12 13 13 14 14 13 13 13 14 14
47 49 50 40 33 26 25 24 22 25 30 33 37 39 43 46 46 39 23 15 16 18 21 22 20 17 13 13 16 11 12 12 14 16 15 14 15 16 16 16 15 14 14 15
48 50 48 39 30 25 23 19 18 23 27 32 35 38 40 43 45 46 35 20 15 15 20 23 24 23 18 13 17 14 11 12 13 13 14 17 19 19 19 20 19 19 18 18
50 52 48 38 28 25 23 19 18 20 25 29 33 37 38 42 44 46 38 25 18 16 15 20 23 24 20 18 18 17 14 12 12 13 12 12 15 16 16 15 16 16 17 18
54 54 47 39 30 26 23 19 20 21 23 26 30 32 34 38 43 45 41 28 16 14 14 14 19 20 23 21 19 19 17 16 15 14 14 13 13 14 15 17 18 19 19 20
58 53 47 37 29 25 23 20 21 22 22 25 27 28 31 34 39 44 46 34 20 12 12 11 9 14 22 23 21 18 16 16 17 16 14 15 17 19 21 22 23 24 26 26
56 50 43 36 27 27 23 22 23 23 23 24 26 25 28 34 37 42 47 32 19 13 12 11 11 11 17 23 25 21 19 18 18 17 18 19 21 23 26 28 30 31 33 33
55 48 39 35 30 27 25 24 25 24 25 25 26 26 30 32 33 39 42 33 18 19 13 12 12 12 13 19 26 27 27 26 24 23 23 22 22 21 23 26 27 30 35 38
54 41 36 35 31 27 25 26 26 27 26 26 28 29 29 30 31 36 42 36 30 21 15 13 13 13 13 16 19 23 25 26 25 24 23 22 21 23 22 21 22 24 25 26
40 39 38 34 29 27 26 26 26 27 28 29 30 29 28 31 31 35 39 35 29 23 17 15 16 20 18 17 15 19 19 21 20 20 20 21 21 18 18 19 18 18 16 15
40 42 37 31 29 27 27 27 27 29 30 31 31 30 31 31 31 36 34 38 25 24 23 19 18 19 20 19 19 16 15 16 20 23 23 19 16 15 17 16 14 11 9 10
42 37 35 31 28 28 28 28 29 31 33 34 33 33 34 35 36 37 36 34 33 29 33 28 24 23 21 19 19 17 19 18 17 19 19 18 15 14 13 8 5 4 5 6

GFSNW_500_spd_096.txt.gz
Wind_Speed
14 19 21 21 27 32 37 42 47 52 57 62 67 70 75 67 24 9 9 11 11 13 14 14 17 21 25 26 15 12 27 28 24 22 29 43 37 33 29 24 20 19 17 22
12 18 21 23 25 30 36 41 46 51 55 58 64 68 71 64 30 9 8 9 10 11 13 13 14 18 22 23 20 13 18 23 21 16 25 46 37 34 28 25 17 16 15 21
12 18 22 25 25 29 35 39 44 48 52 55 61 65 68 63 37 9 7 8 9 8 12 11 13 14 17 15 23 15 15 18 13 11 27 46 37 34 30 25 21 17 13 17
12 17 22 26 24 27 32 39 42 45 49 53 57 61 66 64 42 15 6 7 7 8 8 11 11 13 11 12 13 15 12 14 11 8 44 42 43 37 34 24 22 18 15 12
15 17 20 22 24 26 31 37 41 44 46 50 54 58 62 62 47 20 6 6 6 6 5 8 9 11 9 9 10 9 9 15 13 9 39 44 41 35 28 27 21 16 11 12
21 17 19 21 24 28 30 35 39 42 44 48 52 54 58 60 52 28 6 6 5 6 6 6 8 7 10 4 8 10 14 14 13 15 33 39 38 34 27 28 23 17 15 15
21 16 16 20 23 29 30 34 37 41 42 44 48 51 54 57 52 34 9 6 6 6 5 5 6 6 6 6 3 5 7 9 15 20 18 22 35 38 32 33 28 22 20 17
23 17 16 20 23 28 31 32 34 38 40 42 47 49 52 54 51 39 18 6 7 6 4 4 4 5 4 7 5 3 3 5 11 17 16 12 22 39 37 34 31 27 22 23
20 19 17 18 21 25 31 33 33 36 38 40 43 46 49 51 49 39 27 7 7 8 4 3 2 3 3 3 7 5 5 6 14 18 16 14 14 22 28 27 27 29 33 30
21 20 18 18 20 23 29 33 33 33 36 37 39 43 45 48 48 37 30 10 7 8 5 4 3 1 1 1 1 4 6 8 11 14 13 11 10 10 20 21 23 27 33 35
21 22 20 16 19 22 28 33 33 32 33 33 36 40 43 45 48 38 30 14 6 9 7 5 4 3 2 2 4 2 4 6 8 10 11 10 10 10 10 15 20 25 35 38
23 22 20 17 18 22 28 34 33 30 31 31 32 38 40 41 45 39 29 19 7 10 10 7 6 5 4 3 4 6 5 7 8 9 10 9 10 11 12 17 18 19 21 25
25 23 23 19 18 23 27 33 32 30 31 29 31 35 37 40 43 41 32 20 9 9 12 10 9 8 7 7 6 6 8 8 9 10 11 11 10 12 16 14 15 17 21 24
26 23 23 20 19 25 29 32 33 30 31 27 29 33 35 38 41 42 37 24 13 12 11 12 13 11 10 9 8 8 9 10 10 12 12 13 13 12 12 13 15 14 15 17
28 26 26 29 30 30 30 31 32 30 30 26 27 31 33 35 39 41 40 34 17 13 15 11 11 13 13 13 11 10 10 11 11 12 13 14 14 15 15 15 17 17 18 19
34 33 31 34 35 32 31 30 30 30 28 24 25 28 30 32 36 38 39 37 29 15 17 20 16 16 13 12 13 12 12 12 12 13 13 14 14 16 16 16 15 15 16 17
32 32 34 37 31 31 29 28 28 27 27 24 24 26 29 30 33 35 38 37 33 25 16 19 23 24 18 14 16 14 14 14 14 15 15 14 15 15 17 18 19 19 19 19
34 37 34 36 36 33 29 26 28 25 26 23 25 26 28 29 29 32 36 37 34 32 22 18 18 24 27 21 21 16 16 16 15 15 15 17 18 18 18 18 19 19 19 20
45 43 37 39 38 37 29 26 27 23 24 22 24 26 27 28 29 30 33 35 38 34 29 18 17 20 24 26 23 20 18 17 16 16 17 16 17 18 20 19 18 17 18 18
43 43 45 43 42 36 28 27 25 24 23 22 22 25 26 26 28 29 32 35 39 37 29 20 17 20 19 22 25 22 21 21 19 18 18 18 16 15 16 16 16 19 20 20
45 49 47 43 42 38 28 26 24 23 22 22 23 24 26 24 26 27 32 34 38 38 34 26 17 14 11 16 23 23 22 23 21 20 20 19 18 16 15 17 19 20 21 22
52 48 44 42 42 38 29 26 23 23 23 24 23 25 25 24 24 26 29 33 37 35 35 27 16 19 15 12 18 23 25 24 22 20 19 19 16 16 17 20 23 25 27 30
48 48 48 45 43 34 27 23 22 24 25 25 25 26 25 25 25 24 27 32 34 33 34 30 16 20 16 16 14 17 24 26 25 22 21 20 19 19 20 21 20 22 24 26
51 50 49 47 44 32 25 22 23 24 26 27 27 27 26 26 26 27 29 32 33 33 35 33 23 21 21 20 17 16 19 23 28 28 28 28 27 24 22 21 22 22 22 21
49 51 52 49 35 28 25 23 24 25 27 28 28 29 28 28 28 28 31 34 34 33 35 38 31 25 24 24 22 18 15 18 20 25 25 26 24 21 20 21 20 19 17 16
49 51 54 45 30 27 24 23 25 27 28 30 30 30 30 30 32 32 34 36 34 34 36 39 41 30 29 27 27 25 21 21 22 23 24 23 23 23 20 19 17 15 13 12
51 56 50 34 29 27 24 26 27 29 30 31 31 31 31 33 35 34 34 34 34 35 38 41 44 41 29 31 29 26 27 20 19 23 23 22 23 22 20 18 15 12 9 10

GFSNW_500_spd_099.txt.gz
Wind_Speed
17 18 6 11 16 18 22 26 32 35 41 46 53 58 62 68 61 25 11 10 11 13 17 19 23 25 25 25 7 19 21 21 19 18 16 25 28 31 31 28 31 26 23 28
14 5 5 10 16 17 20 25 30 34 39 43 49 55 58 63 60 38 11 9 11 11 14 15 20 21 21 25 12 18 20 17 13 16 14 26 30 32 29 23 17 19 16 22
16 11 6 8 14 16 19 23 29 34 37 42 47 51 54 60 60 45 14 8 8 9 11 15 17 18 18 22 16 16 16 14 13 13 15 30 32 26 25 19 14 14 14 14
16 13 6 8 11 16 19 23 27 32 34 39 44 48 50 57 59 50 20 8 7 8 9 12 13 16 13 14 15 10 12 15 9 3 20 35 33 24 22 18 12 16 13 18
15 9 5 7 9 16 20 21 26 30 32 36 40 45 47 52 57 52 33 7 6 7 8 11 13 13 9 11 10 10 12 13 7 3 22 32 34 29 22 19 17 16 14 15
17 15 8 6 10 14 19 21 24 29 32 34 38 43 45 48 54 51 41 12 7 6 6 6 10 10 10 6 7 9 6 10 9 3 22 31 37 30 23 18 19 15 11 11
21 17 12 9 8 13 18 21 25 27 30 32 36 39 44 45 51 50 43 20 7 7 7 6 7 8 9 5 1 3 3 3 11 8 26 33 28 29 24 22 20 17 13 10
19 17 13 11 8 11 16 20 26 28 29 31 33 36 41 42 47 47 43 29 10 8 6 5 4 5 6 6 1 2 2 5 7 12 21 23 29 26 27 21 24 24 19 11
23 19 13 10 7 9 13 19 24 27 27 29 32 35 39 40 43 46 44 35 14 9 5 6 4 4 5 4 4 2 3 6 14 15 17 14 21 30 29 24 28 28 26 17
25 21 18 13 8 8 12 18 22 26 27 29 31 33 36 38 40 43 44 38 22 10 6 6 6 4 4 3 2 1 2 5 13 18 19 17 13 13 17 20 32 34 32 32
27 21 18 14 10 6 10 15 19 25 25 27 28 30 33 35 38 39 42 39 28 14 7 6 7 5 4 4 3 1 3 5 8 12 15 14 12 13 12 14 23 26 29 30
22 16 14 13 8 7 8 12 19 25 26 27 27 28 30 32 35 37 40 40 37 20 8 8 7 7 7 6 6 6 5 7 10 11 12 12 12 11 12 12 14 16 19 22
24 24 18 15 10 10 8 14 18 24 25 26 26 25 29 30 33 34 36 39 40 28 15 12 11 10 9 9 9 8 9 10 11 11 11 11 11 12 13 13 13 14 16 18
31 25 20 18 12 6 10 17 19 23 26 24 25 24 26 28 31 32 33 35 39 38 23 14 15 16 13 12 11 12 12 12 12 13 13 13 13 12 11 15 16 17 17 19
34 30 22 20 17 13 12 16 18 21 24 24 24 24 25 26 28 29 31 32 35 38 34 19 17 18 16 16 16 16 14 14 15 15 16 15 15 14 15 14 15 16 17 17
39 36 26 22 18 15 13 15 16 19 25 26 24 23 22 24 25 28 29 30 32 34 37 32 18 21 21 16 18 18 18 17 17 18 18 18 18 18 17 17 17 18 18 19
36 35 30 26 20 15 14 16 15 19 21 25 23 22 20 22 23 26 27 29 30 31 34 38 30 17 21 24 21 20 19 19 18 18 20 20 19 20 21 21 21 20 20 20
43 33 28 21 17 16 15 18 17 19 20 23 23 23 22 23 23 24 25 27 29 30 31 35 37 29 20 20 28 27 23 21 22 19 20 21 21 21 22 22 23 23 23 23
38 35 31 26 22 23 22 23 22 20 19 21 23 24 24 22 23 24 25 26 28 29 30 32 35 38 29 21 21 29 30 24 22 23 21 21 23 24 24 24 24 24 25 24
39 37 33 31 34 31 26 25 21 21 20 22 23 24 24 24 26 25 26 25 25 28 29 30 33 36 38 28 20 19 27 28 26 24 24 23 24 24 24 25 25 25 25 24
38 36 32 33 33 30 28 31 23 24 20 21 23 24 24 25 27 27 27 27 26 26 26 27 31 33 38 31 23 20 23 28 28 27 27 26 24 24 24 23 22 22 21 21
35 36 38 36 36 36 33 31 29 22 21 22 24 25 24 26 28 28 27 26 28 27 26 26 28 33 33 35 25 23 22 25 29 28 28 27 27 26 25 24 22 20 21 24
37 38 33 35 39 40 34 34 27 24 23 23 25 25 25 27 29 29 29 29 29 30 30 28 27 30 35 35 30 25 25 24 28 30 30 30 28 26 26 23 22 22 22 23
41 37 37 36 36 33 34 35 27 22 24 26 26 26 26 28 30 30 30 31 31 33 33 32 29 29 32 34 31 27 28 28 28 30 33 30 28 27 26 25 25 26 25 25
38 40 39 34 33 35 38 34 26 24 26 26 27 27 27 29 31 31 32 33 34 34 35 34 31 32 34 37 35 31 29 32 30 28 29 29 33 33 31 30 29 27 26 24
39 38 34 34 35 39 36 29 24 27 26 27 28 28 28 32 33 32 33 34 35 36 37 36 34 34 36 39 44 41 33 34 36 33 29 30 29 29 29 28 27 26 24 23
40 37 37 38 39 38 34 30 26 26 26 27 28 29 31 34 35 34 35 35 37 39 37 35 36 36 40 44 48 51 43 33 40 36 33 30 30 30 30 28 26 23 23 22